GFSNGP_850_thetae_075.txt.gz
Theta_e
320 320 320 319 320 320 320 321 323 322 321 319 320 321 321 321 322 321 320 320 321 324 328 330 331 331 330 331 329 326 323 322 324 324 323 320 318 314 313 310 310 309 308 305
320 320 319 319 319 319 319 319 320 320 320 321 321 320 320 320 320 321 320 320 320 322 325 330 331 331 329 326 322 320 319 320 319 319 318 317 312 310 310 309 308 305 306 300
322 320 320 323 319 319 320 320 320 321 321 321 321 320 320 319 319 321 321 322 322 322 326 330 329 327 324 320 317 317 316 316 316 317 315 312 311 310 307 304 304 301 301 302
326 324 327 321 320 320 320 320 320 321 320 320 320 319 319 320 320 321 322 322 323 325 326 326 325 321 319 317 315 316 317 316 314 311 310 310 306 302 301 301 302 303 301 299
328 326 321 320 319 320 320 320 320 320 321 320 319 319 319 318 317 321 322 322 322 323 323 322 319 317 315 315 315 314 312 309 307 307 307 304 301 301 303 302 300 299 298 296
325 326 326 321 320 320 320 324 321 320 321 320 318 320 318 317 316 317 318 318 319 320 320 319 317 315 313 310 309 307 305 303 305 305 302 302 302 302 300 299 297 295 295 295
327 329 322 320 320 320 323 323 320 320 319 319 319 319 319 316 316 316 315 315 316 316 316 315 313 311 308 307 306 304 301 301 301 301 300 300 299 298 296 295 295 295 292 291
326 331 328 319 318 321 322 321 321 321 320 319 319 317 316 315 314 313 313 313 314 314 313 312 310 309 308 305 303 302 301 300 299 299 298 298 296 295 294 294 294 292 289 287
323 324 322 318 320 319 320 321 322 320 320 319 319 315 314 313 312 312 312 312 312 311 309 308 307 306 305 303 301 300 299 298 297 297 296 294 293 293 291 290 290 290 288 288
321 320 322 321 321 320 320 320 320 319 319 319 317 314 313 312 312 311 311 310 309 307 306 305 304 303 302 301 300 299 298 296 295 293 291 290 289 288 289 288 288 286 287 287
319 319 319 321 321 321 321 319 318 318 318 318 316 313 312 311 311 310 309 308 307 306 304 302 301 300 299 298 298 296 294 292 291 290 289 288 288 287 286 286 285 283 284 282
323 319 320 320 320 322 322 320 319 319 317 317 316 313 311 310 309 308 306 305 304 302 300 299 297 296 295 294 294 292 290 290 289 288 287 286 286 286 285 284 283 282 281 280
319 319 320 320 317 317 320 320 320 319 317 316 314 312 310 308 307 305 304 303 301 299 297 294 292 290 289 289 289 289 288 288 286 285 285 285 284 285 286 285 284 282 281 281
318 319 318 318 319 316 314 314 315 315 314 313 311 309 308 306 303 302 301 300 298 295 292 289 287 287 287 289 287 287 286 285 285 284 284 284 284 283 283 283 283 283 282 281
318 317 317 315 313 312 311 310 311 310 310 308 307 306 305 302 302 301 298 295 292 289 287 286 290 290 289 287 286 286 285 284 283 283 282 281 281 281 281 281 281 281 280 280
317 315 312 313 312 310 309 309 308 306 306 305 304 303 301 301 298 293 291 289 288 288 291 292 290 287 285 286 285 287 284 282 281 281 280 280 280 279 280 280 279 279 279 279
314 313 312 312 310 309 309 308 306 304 303 302 301 299 296 291 290 290 289 289 291 291 288 287 288 287 287 288 283 282 281 281 280 279 279 279 278 278 278 278 278 278 277 277
312 311 311 311 309 307 305 304 302 301 299 298 297 296 294 292 291 290 290 289 288 287 289 288 287 287 282 282 281 280 280 279 279 278 278 277 277 276 276 276 276 276 275 275
307 307 305 304 302 300 297 297 296 296 295 294 294 292 291 290 289 288 288 288 288 288 287 285 283 281 281 280 279 279 278 278 277 276 276 275 275 275 274 274 274 273 273 273
298 298 297 297 297 297 294 293 293 293 292 292 291 290 289 288 288 287 286 286 286 285 282 281 280 280 280 279 278 277 277 276 275 274 274 274 273 273 272 272 272 272 271 271
293 294 294 294 292 290 290 290 290 289 289 290 291 289 288 287 286 285 285 285 281 281 281 279 279 278 278 277 276 275 274 273 273 273 273 272 272 272 272 271 271 270 270 269
291 291 289 289 289 289 289 290 290 290 290 290 289 288 287 285 284 283 282 283 281 279 278 277 277 277 276 276 274 273 273 272 272 271 271 271 271 270 270 269 269 268 268 267
288 288 289 289 289 288 288 289 289 288 287 286 286 285 283 281 282 282 280 279 278 278 276 277 277 276 275 274 272 272 271 271 271 270 270 270 269 269 268 268 267 267 266 266
287 287 287 287 288 288 287 286 287 286 284 283 282 282 281 281 281 280 279 278 278 277 276 276 275 274 273 272 271 271 270 270 269 269 269 268 268 268 267 267 266 266 265 265
286 285 285 285 285 284 283 282 282 282 282 282 281 281 281 280 280 278 277 277 276 275 274 273 273 272 271 270 270 269 269 268 268 267 267 267 267 266 266 266 265 265 264 263
285 284 284 284 284 283 283 282 282 281 280 279 278 278 277 277 276 275 275 274 273 272 271 271 270 269 269 269 268 268 268 267 267 266 265 265 265 265 265 264 264 263 262 262
283 283 282 281 280 280 280 280 279 278 278 278 277 276 276 275 275 274 273 272 271 271 270 270 269 268 267 266 266 266 266 266 265 264 264 263 263 263 263 262 262 262 263 264

GFSNGP_850_thetae_078.txt.gz
Theta_e
321 321 321 321 322 321 321 322 323 324 322 322 322 321 321 321 322 322 322 321 320 321 326 328 329 330 331 332 332 331 330 329 327 326 324 323 323 322 321 319 315 311 310 308
323 320 321 321 321 321 320 320 319 321 321 321 320 320 321 321 320 320 321 321 321 320 322 329 330 331 331 331 331 329 328 326 325 322 322 321 321 319 318 315 310 310 308 307
324 322 320 320 321 320 319 320 320 320 322 321 321 321 321 320 320 320 319 321 322 322 322 331 332 332 330 331 329 328 326 323 320 320 319 318 318 315 312 310 309 306 305 301
324 322 323 321 321 321 320 320 320 320 320 321 321 320 320 320 320 320 322 322 322 323 328 331 331 330 329 327 325 324 320 318 319 318 317 315 311 310 310 308 305 303 302 302
325 324 322 321 321 321 321 321 321 320 320 321 320 320 320 319 319 319 322 322 323 326 327 327 327 327 325 323 322 319 318 317 316 315 313 311 310 307 303 302 303 303 302 300
325 325 326 323 321 320 321 321 321 321 321 322 321 323 321 318 318 322 322 323 324 324 324 323 322 321 320 319 317 315 314 313 311 310 310 308 304 302 303 303 301 300 297 296
322 326 324 321 320 320 323 323 321 321 321 321 321 322 320 318 318 319 319 321 322 322 321 318 317 316 317 316 313 311 307 305 306 306 303 302 302 302 300 299 296 296 295 294
324 325 325 320 320 321 322 321 322 322 321 320 321 319 319 318 318 317 317 318 319 319 318 317 315 313 311 309 307 305 304 303 303 302 301 301 299 298 296 296 295 294 293 292
323 324 324 321 320 320 319 322 321 322 322 320 320 319 318 317 316 315 315 315 316 316 314 313 311 310 309 306 304 303 302 302 301 300 298 298 297 296 295 293 292 291 290 288
323 320 320 321 321 321 321 320 322 321 321 320 321 319 317 316 315 314 314 314 314 313 311 309 308 308 305 304 303 301 300 299 298 296 294 293 293 292 291 290 290 289 288 287
320 319 318 318 319 322 322 321 320 320 320 320 320 318 316 315 314 313 313 312 311 309 308 306 305 304 303 302 301 300 298 296 294 293 291 290 290 289 289 288 287 286 285 285
323 319 320 320 319 321 321 319 319 320 319 319 319 318 315 314 313 312 311 309 308 307 305 303 301 300 300 299 298 296 293 291 291 290 289 288 288 287 286 285 285 284 283 282
318 319 320 322 319 319 319 322 321 320 320 319 318 317 314 313 312 310 309 307 305 302 301 299 297 294 293 293 292 291 291 290 288 287 287 286 286 286 286 286 285 285 283 282
314 314 319 319 319 317 316 317 317 318 318 317 316 314 312 311 309 307 305 304 301 298 295 291 289 289 290 290 290 289 288 287 288 286 285 285 285 285 284 283 284 283 282 282
319 319 319 317 315 314 313 313 313 313 312 312 312 310 309 307 305 303 302 298 294 290 287 288 289 287 286 289 289 288 287 287 286 287 287 283 282 282 281 281 281 281 281 281
314 318 316 315 314 312 311 311 310 309 308 307 307 306 304 302 300 297 294 290 290 291 289 289 289 288 286 286 287 287 288 288 286 284 282 282 282 281 280 280 280 280 279 279
317 315 314 314 312 311 311 309 307 306 305 304 303 302 300 299 295 292 291 291 290 288 288 289 289 288 288 287 286 285 286 285 281 282 281 280 279 279 279 279 278 278 278 277
313 312 313 313 311 308 306 305 304 303 302 301 300 299 297 295 293 291 289 289 288 288 288 288 287 287 285 285 284 282 280 282 281 279 279 278 278 278 277 276 276 276 276 276
308 306 306 306 305 303 301 301 300 299 296 296 296 295 293 291 289 288 288 287 287 287 285 285 285 283 282 281 282 283 281 279 278 277 277 277 276 276 275 275 275 274 273 273
299 298 298 297 298 298 297 296 296 294 293 294 292 290 288 287 287 286 286 286 286 286 285 283 283 283 283 280 278 278 278 277 276 276 275 275 274 274 274 273 273 273 272 271
292 293 293 292 291 290 291 291 291 289 288 289 289 288 287 285 285 286 286 287 284 283 282 281 280 279 278 277 277 277 276 275 274 274 273 273 273 273 272 272 271 271 270 270
288 288 288 288 288 288 288 289 289 288 288 288 287 286 286 285 285 284 283 283 280 278 278 278 278 278 278 277 275 275 274 273 272 272 272 272 271 271 270 270 270 269 269 268
287 287 287 287 287 287 288 288 287 287 286 285 285 284 283 282 282 281 281 279 278 277 277 277 277 276 275 274 273 273 272 272 271 271 271 270 270 269 269 269 268 268 267 267
287 287 286 287 287 287 286 285 285 284 284 283 282 282 282 282 281 280 279 278 277 276 276 275 274 274 273 272 272 271 271 270 270 270 269 269 268 268 268 267 267 267 266 266
286 285 285 285 284 283 283 282 282 281 280 280 280 281 281 280 279 277 276 276 276 274 274 273 272 271 271 270 270 270 269 269 268 268 267 267 267 266 266 266 266 265 265 264
285 284 284 284 283 283 283 282 282 281 280 279 278 278 277 276 276 275 274 274 273 272 272 271 270 270 269 268 268 267 267 267 267 266 266 265 265 264 264 264 264 263 263 263
283 282 282 282 281 281 281 280 279 279 279 277 276 276 275 275 274 274 273 272 271 271 270 270 269 268 268 267 267 266 266 265 265 265 264 264 263 263 262 262 262 262 263 262

GFSNGP_850_thetae_081.txt.gz
Theta_e
320 319 319 321 321 320 320 321 324 323 323 321 318 318 319 321 321 321 321 322 321 325 325 325 326 330 331 331 331 331 331 330 330 330 329 327 325 325 325 322 321 321 319 315
319 319 320 320 320 319 320 320 318 318 319 317 319 319 319 320 321 321 321 321 320 321 325 327 327 328 330 331 331 330 329 329 328 328 326 326 325 324 323 322 320 317 312 310
320 319 320 318 319 319 320 319 318 317 317 317 318 319 319 320 319 320 319 320 320 320 320 327 328 329 330 331 330 330 329 328 326 325 324 324 322 321 321 319 316 311 310 309
320 318 323 319 318 319 319 319 318 318 318 317 318 319 319 320 320 321 321 321 322 322 323 329 330 330 330 330 329 328 326 325 324 322 321 320 319 318 317 314 310 310 308 305
320 321 321 320 319 319 319 318 319 319 318 318 319 319 318 319 319 319 321 321 322 322 325 331 330 330 329 328 327 326 324 323 321 319 319 319 317 316 313 310 309 305 303 302
316 322 322 320 319 319 319 318 318 319 318 318 318 316 315 318 318 319 321 322 322 324 326 328 328 328 327 326 323 322 321 319 318 317 315 313 311 310 309 305 303 303 303 302
317 318 319 320 319 319 319 316 318 320 320 319 318 318 319 318 318 318 320 322 323 324 325 325 324 323 321 320 320 319 317 316 315 313 311 310 309 305 302 303 303 302 300 298
315 317 320 319 319 319 317 319 319 320 322 320 319 319 318 318 317 317 319 321 323 323 323 320 318 318 318 317 316 315 314 312 311 308 307 304 302 303 302 302 301 299 297 296
318 317 319 321 321 320 320 321 321 321 322 320 319 319 318 317 317 317 318 320 321 320 319 317 315 314 314 311 310 308 307 305 303 302 302 302 302 301 299 298 297 296 295 294
317 316 316 319 319 320 319 319 321 321 321 320 320 319 318 317 317 317 316 317 317 317 315 313 312 310 309 307 306 304 303 302 302 301 300 299 298 297 296 295 294 293 291 290
318 319 318 316 317 318 318 318 321 320 320 319 320 320 318 317 316 315 315 315 315 313 311 309 309 307 305 304 303 302 301 299 298 297 296 295 294 294 293 291 290 290 289 287
316 317 317 317 317 317 317 318 318 320 319 319 319 320 318 316 314 314 314 312 311 309 307 304 304 303 302 302 301 300 298 296 294 292 291 290 290 289 289 287 286 285 285 284
314 316 318 320 319 318 319 319 320 321 319 320 319 319 316 314 313 312 310 309 307 305 302 301 300 299 298 297 297 295 294 292 291 290 289 289 288 288 287 287 289 288 285 283
316 316 319 319 317 317 316 316 318 318 318 318 317 315 314 313 310 308 306 304 302 300 298 297 297 295 292 292 293 292 290 289 289 289 289 287 286 287 287 285 284 283 283 282
316 318 318 315 315 315 314 314 314 313 313 313 313 311 311 309 305 301 298 298 297 297 295 295 295 294 291 289 289 290 291 290 288 287 287 287 285 283 281 283 282 281 281 281
313 317 316 314 312 312 311 311 310 309 309 309 308 306 304 302 298 296 295 295 297 295 294 294 291 289 289 290 290 289 288 287 287 286 284 283 284 284 282 281 280 280 280 279
315 314 313 312 311 310 308 308 307 306 304 304 302 300 300 299 296 293 292 294 295 293 290 290 289 289 288 288 287 287 286 285 283 283 283 282 281 280 279 279 278 278 278 277
314 314 313 312 309 308 306 304 304 303 302 299 297 296 296 295 294 293 292 292 291 289 288 287 286 286 286 285 285 283 282 282 282 280 279 278 277 277 277 277 276 276 275 275
310 309 308 308 306 305 303 301 301 299 296 295 295 295 294 292 291 289 288 288 288 287 285 285 286 285 283 283 282 281 279 278 277 277 277 276 276 275 275 275 274 273 273 273
302 302 302 300 300 301 298 296 296 295 294 296 294 293 291 288 288 288 288 287 286 285 283 283 282 281 279 278 277 278 278 277 277 276 275 274 274 273 273 273 272 272 271 271
296 296 295 295 293 293 293 293 293 292 291 291 291 288 287 286 286 286 286 285 282 281 280 279 278 278 278 278 277 276 276 275 274 273 273 272 272 271 271 271 270 270 269 269
291 291 290 290 290 288 288 289 289 289 288 288 287 286 286 285 285 284 281 281 278 278 278 278 278 277 276 275 274 274 273 272 272 271 271 270 270 270 269 269 269 268 268 268
287 287 286 286 287 286 286 286 286 286 285 285 285 285 283 282 281 281 279 278 278 277 277 276 275 274 273 273 272 271 271 270 270 269 269 269 269 268 268 267 267 267 266 266
286 286 285 286 286 286 284 283 284 284 283 282 282 281 282 281 279 278 277 277 276 275 275 274 272 272 271 271 270 270 269 269 268 268 268 267 267 267 266 266 265 265 265 265
285 285 285 285 285 283 282 282 282 282 281 281 280 279 279 278 278 276 275 275 274 273 272 271 271 270 269 269 268 268 267 267 266 266 266 266 265 265 264 264 264 264 264 263
284 284 283 283 282 282 281 281 280 279 279 278 277 276 276 275 275 274 273 272 272 271 271 270 269 269 268 267 267 266 266 265 265 265 264 264 264 263 263 263 263 263 263 263
283 283 283 282 282 281 281 280 279 277 277 276 276 275 274 274 273 273 272 271 271 270 270 269 268 267 267 266 266 265 264 264 264 263 263 263 263 263 263 263 263 263 263 263

GFSNGP_850_thetae_084.txt.gz
Theta_e
317 317 318 318 319 319 320 320 320 319 320 319 319 318 318 320 319 320 321 321 321 323 324 323 322 325 326 328 328 327 327 327 327 327 329 329 328 328 322 324 322 322 324 323
317 317 319 320 319 318 319 318 319 320 319 319 320 319 317 319 320 320 321 321 321 321 324 324 324 325 327 329 329 328 328 328 328 329 329 328 327 328 324 324 325 323 322 321
316 318 319 319 318 319 319 319 318 318 317 316 315 314 315 318 319 320 321 320 320 320 322 325 325 326 327 328 330 329 329 329 329 329 327 327 326 324 325 323 323 322 321 318
314 317 322 319 317 318 319 319 317 317 316 316 315 317 318 319 319 319 319 320 320 320 320 324 326 327 328 330 331 330 328 328 328 326 325 324 323 323 321 320 321 319 316 311
319 318 319 319 318 317 318 317 316 316 316 316 317 318 318 319 320 320 320 320 320 321 321 322 327 329 329 330 331 330 328 326 326 324 323 322 322 320 320 318 316 312 309 309
315 318 319 317 317 318 317 318 317 316 317 318 315 314 314 319 319 319 319 318 318 320 321 325 328 328 328 328 327 327 326 325 323 321 320 319 319 319 316 313 312 309 307 305
316 318 315 317 317 318 320 317 317 318 319 317 315 316 318 318 318 318 318 318 321 322 323 327 328 327 327 326 325 323 321 319 318 317 316 317 316 313 311 309 308 305 303 302
312 313 317 316 318 318 316 319 319 319 320 319 319 318 318 318 319 320 319 321 322 322 324 324 323 323 322 321 319 319 316 315 315 314 314 312 310 309 306 304 303 303 302 300
312 313 314 316 320 319 318 319 319 320 321 320 319 318 318 318 319 320 320 321 322 322 322 320 317 316 317 316 315 313 314 312 310 308 307 306 304 302 303 303 303 300 297 296
315 316 316 316 319 319 319 319 318 320 320 319 318 318 318 317 318 319 320 320 320 320 318 316 314 312 313 313 311 309 307 306 304 303 302 302 302 300 299 296 296 296 296 295
314 315 317 316 317 317 318 317 318 318 319 319 320 318 318 317 317 317 318 318 317 317 315 312 310 308 307 307 307 305 303 301 301 301 299 297 296 293 293 294 293 291 290 290
314 315 316 314 316 316 316 316 317 318 318 319 319 319 318 316 315 315 315 315 314 312 310 307 306 305 303 303 303 302 301 298 296 296 293 292 291 291 289 289 289 289 286 285
313 314 316 316 318 319 317 317 318 318 318 319 319 319 316 314 314 313 312 310 308 306 304 303 303 302 301 301 300 299 298 294 293 292 292 292 292 292 291 288 287 288 289 287
315 318 317 317 316 317 318 318 319 319 319 318 318 315 314 313 310 309 305 303 301 300 300 300 300 298 294 294 295 296 295 293 293 293 292 290 289 288 287 287 286 285 284 284
312 317 318 316 314 314 314 315 316 315 313 312 311 311 310 308 304 300 297 297 297 298 296 295 297 295 294 294 294 293 292 292 290 289 288 288 287 286 285 284 283 282 281 281
315 316 314 313 312 311 312 312 312 307 308 306 306 303 300 299 296 294 294 294 296 295 295 296 295 291 290 290 290 289 289 288 288 287 286 285 284 283 282 281 280 280 280 279
314 311 311 310 309 308 308 307 307 304 300 300 298 296 296 295 293 292 292 294 296 294 292 291 289 288 288 288 288 287 287 286 285 283 283 282 281 279 279 278 278 277 277 276
313 312 311 310 307 306 303 302 302 301 299 296 295 295 293 293 293 292 292 291 290 289 288 287 287 287 286 286 285 284 283 282 280 279 278 277 277 276 276 275 275 275 274 274
308 309 305 305 304 303 300 299 298 297 294 294 293 293 293 292 291 289 289 289 288 287 283 284 284 284 283 281 280 278 278 277 277 277 276 275 275 274 274 273 273 272 272 271
301 303 302 300 298 299 297 295 294 293 292 294 294 292 290 288 287 287 288 286 284 283 281 281 280 280 279 279 279 279 278 276 276 275 274 273 272 272 271 271 270 270 269 269
294 297 296 296 294 293 293 293 293 291 290 291 291 288 287 286 286 286 286 284 279 279 278 278 279 278 278 277 276 275 274 274 273 272 271 271 270 270 269 269 269 268 268 267
291 293 292 291 291 289 290 290 290 289 289 288 287 286 286 284 284 283 281 281 277 278 278 278 277 276 275 274 274 273 272 271 270 270 269 269 268 268 267 267 266 266 266 266
287 288 287 287 286 286 286 287 287 287 286 285 285 285 284 282 281 281 279 277 277 277 276 275 274 273 272 272 271 271 270 269 269 268 267 267 266 266 266 265 265 265 264 264
285 286 285 285 286 287 285 284 285 284 284 283 282 282 282 281 279 278 277 276 276 275 274 273 272 271 271 270 269 269 268 267 266 266 266 265 265 265 264 264 264 263 263 263
284 284 285 286 285 283 283 283 283 282 281 280 280 279 279 278 279 275 275 274 273 272 272 271 270 270 269 268 268 267 267 267 266 266 265 265 265 265 264 264 263 263 264 264
284 283 283 284 283 283 282 282 281 280 280 279 278 277 276 275 274 273 272 272 271 271 270 270 269 268 268 268 268 267 267 267 266 266 265 265 265 264 264 264 264 264 264 264
284 284 283 283 282 282 281 281 280 278 277 276 275 274 274 273 273 272 271 271 270 270 269 268 268 268 268 268 267 267 266 266 266 265 265 265 265 264 264 264 264 264 264 264

GFSNGP_850_thetae_087.txt.gz
Theta_e
315 314 315 318 318 318 318 318 320 319 320 319 317 317 317 321 321 320 319 319 321 324 324 324 325 325 325 325 325 326 326 326 326 325 325 324 324 325 326 326 326 322 320 320
316 315 315 316 316 319 319 318 317 317 318 316 317 318 317 319 319 318 320 320 319 321 323 323 323 323 323 323 324 325 326 326 326 326 326 326 326 326 326 327 327 326 321 323
317 316 317 318 317 317 318 318 317 317 317 317 316 315 316 318 318 319 318 320 320 320 321 321 323 323 323 324 325 326 326 326 326 326 326 327 327 327 324 325 324 323 322 323
316 315 320 317 316 317 318 318 317 316 316 315 315 318 319 318 318 319 319 320 321 321 320 320 322 324 325 325 326 327 327 327 327 327 328 326 326 325 325 323 322 323 322 320
318 317 316 318 316 317 318 318 317 317 316 314 316 316 317 318 318 319 319 320 320 320 320 320 321 323 325 327 327 328 328 328 327 325 325 324 323 323 322 323 321 320 319 316
315 318 317 315 316 317 318 319 316 316 318 314 314 315 314 318 319 319 319 320 320 320 319 321 322 324 326 328 328 328 328 327 325 324 323 321 322 320 320 319 316 312 310 309
316 317 314 314 314 316 321 318 316 317 316 316 314 316 317 318 319 319 319 318 319 319 321 322 325 326 327 327 326 325 324 323 321 320 318 317 316 316 316 314 311 310 309 308
313 312 314 313 318 318 315 318 319 318 319 317 318 319 318 318 318 318 318 320 321 321 323 325 325 325 325 324 323 321 319 317 315 314 313 313 313 313 311 310 309 307 305 303
313 311 310 313 319 317 318 318 318 317 320 320 318 317 318 319 319 320 321 321 322 322 322 321 320 320 319 318 316 316 314 313 312 311 310 310 309 308 307 304 302 302 300 299
314 313 312 313 314 317 318 318 318 318 319 319 318 317 319 320 321 320 321 321 321 321 319 317 314 313 313 312 311 311 311 309 308 307 306 305 304 302 302 301 299 297 295 294
312 312 312 313 313 315 316 318 317 318 319 319 319 318 318 318 319 320 320 320 319 318 316 314 311 311 310 309 309 309 307 306 305 304 303 303 301 299 297 294 293 293 292 292
311 312 312 313 314 315 316 316 317 318 317 319 319 317 317 317 318 318 318 317 316 314 312 309 309 308 307 306 306 306 304 301 300 299 298 296 295 294 294 294 294 293 292 289
311 312 312 312 314 315 316 316 316 317 318 318 318 319 317 315 312 313 312 312 309 308 306 305 305 304 302 301 301 300 298 295 296 295 294 294 293 293 291 289 288 288 287 287
309 310 314 315 316 316 317 315 314 315 316 316 315 315 315 310 305 305 304 302 302 302 301 300 300 298 294 294 295 295 296 294 293 293 292 291 290 289 288 287 286 285 284 283
307 309 311 314 314 313 316 314 316 315 313 307 306 307 306 305 299 297 296 297 298 297 295 295 295 294 294 294 295 294 293 292 290 289 288 287 286 286 285 284 283 282 281 281
312 312 314 312 310 310 312 314 309 303 301 298 300 300 297 296 295 293 293 293 295 294 294 294 293 290 291 291 290 290 289 288 287 286 285 285 284 283 282 281 280 279 278 278
312 310 311 310 308 306 305 306 303 302 297 297 295 295 295 294 292 291 292 293 293 291 290 290 288 288 288 288 288 287 286 285 284 283 282 280 278 278 277 276 276 276 275 275
310 312 313 311 307 304 299 299 299 299 298 297 295 294 293 293 292 291 290 290 289 288 287 286 286 286 286 285 284 283 282 281 280 279 278 277 277 276 275 274 274 273 272 272
305 305 306 305 303 302 298 295 295 294 292 293 293 293 293 292 291 289 287 288 287 286 282 283 283 283 282 281 281 281 280 279 278 277 276 275 274 273 272 272 271 270 270 269
299 297 299 298 296 298 295 292 292 291 291 292 293 291 289 287 287 287 287 286 283 282 280 280 281 281 280 280 279 278 276 275 274 273 273 272 271 270 270 269 269 268 268 267
295 292 291 292 291 291 294 290 291 291 290 291 291 288 286 285 285 285 285 283 278 278 279 279 279 278 277 276 275 274 273 273 272 271 271 270 269 268 268 267 267 266 266 266
292 291 288 289 290 289 290 290 291 289 289 288 287 285 285 284 283 283 281 281 277 278 278 277 275 274 274 273 273 272 272 271 270 269 269 268 267 267 266 266 265 265 264 264
287 287 287 287 286 285 286 287 287 287 286 285 284 284 283 282 281 282 280 276 276 275 275 274 272 272 272 272 271 270 270 269 269 268 267 267 266 266 265 265 265 264 264 264
285 285 285 285 286 286 285 284 285 285 284 283 283 283 283 282 279 278 276 275 275 274 273 272 272 272 271 270 269 269 268 268 268 267 267 266 266 266 266 266 265 265 265 265
283 283 284 285 285 283 283 283 283 282 282 281 280 279 279 278 279 275 274 273 272 272 272 272 271 270 269 269 268 268 268 267 267 267 267 267 266 266 266 265 265 265 265 265
283 283 283 284 283 283 283 283 283 281 281 279 277 276 275 275 274 273 273 272 272 271 271 270 269 269 268 268 268 268 267 267 267 267 267 266 266 266 266 266 265 265 265 265
284 284 284 283 283 283 283 282 281 279 278 277 276 274 274 273 273 273 272 271 270 270 269 269 269 268 268 268 268 267 267 267 267 267 266 266 266 266 266 266 265 265 265 265

GFSNGP_850_thetae_090.txt.gz
Theta_e
313 314 313 316 315 314 315 316 318 317 318 317 316 316 317 319 320 319 319 320 320 322 322 322 323 323 324 323 323 324 324 324 324 320 319 319 319 320 321 321 322 322 323 323
312 313 316 316 315 314 316 315 316 316 316 315 317 317 317 318 319 320 319 321 321 320 322 322 323 323 323 323 323 324 324 324 324 323 322 322 322 323 323 323 323 324 324 322
315 314 314 315 313 314 313 316 316 316 315 315 315 314 315 318 320 320 320 321 320 320 320 320 321 323 324 324 324 324 324 324 324 324 324 324 324 324 324 325 324 324 323 324
315 314 320 315 313 314 315 314 314 315 315 314 314 317 317 318 319 320 320 319 319 319 320 320 320 321 321 322 323 323 323 324 324 324 324 324 324 323 323 324 323 324 323 322
315 318 315 316 315 316 316 316 315 315 314 315 316 314 314 316 318 319 318 318 318 319 319 319 319 320 322 323 325 325 324 324 324 323 323 321 321 322 323 323 321 321 321 320
314 316 315 315 314 314 316 317 315 314 314 314 314 315 313 316 316 316 317 317 318 320 320 320 319 321 323 325 325 325 323 323 321 320 319 320 320 320 318 319 319 316 315 312
313 315 314 314 315 314 318 316 315 317 315 315 314 317 318 316 318 318 319 319 320 320 319 320 321 322 324 324 323 322 322 321 321 320 320 318 317 316 316 315 314 313 311 309
314 316 316 312 315 318 314 316 317 317 317 317 316 317 315 318 319 320 320 320 320 320 321 323 324 325 324 323 320 320 319 318 317 316 315 313 312 312 311 311 310 308 306 305
313 313 312 311 312 312 315 316 316 317 317 319 319 320 319 319 319 320 321 321 322 322 322 321 320 320 319 317 317 316 315 314 312 311 310 310 310 310 309 307 305 304 302 300
311 311 311 311 312 313 314 316 317 318 317 318 317 316 318 320 320 320 320 321 320 320 319 316 314 313 312 311 311 311 311 310 309 309 308 306 305 303 302 300 298 297 295 294
311 312 312 312 311 313 314 315 315 317 317 318 317 315 319 319 320 319 318 319 318 315 315 311 310 309 308 309 309 309 308 306 304 302 301 300 299 297 296 294 294 294 293 292
308 310 310 310 312 313 314 314 315 315 316 318 318 317 318 314 314 317 313 315 316 309 309 308 308 307 306 305 305 305 303 300 299 298 297 296 295 294 293 293 292 291 289 288
308 309 308 309 313 315 316 314 316 316 315 317 317 315 317 317 315 307 310 310 307 305 303 302 303 303 300 300 301 300 298 296 296 295 294 293 292 291 289 288 287 286 285 285
309 307 306 308 312 313 314 314 314 316 313 312 308 308 312 305 305 310 306 302 301 301 298 297 297 294 293 294 295 295 295 293 293 292 290 289 288 288 286 286 285 283 282 281
305 305 307 309 311 312 313 313 315 314 311 311 307 306 305 304 302 297 299 300 297 295 293 293 294 293 293 294 295 293 292 290 289 288 287 286 285 284 284 283 281 280 280 279
308 310 311 311 308 309 309 306 308 300 310 300 302 301 295 297 296 296 293 294 295 293 292 293 292 290 291 291 291 290 288 287 287 286 285 283 282 281 280 278 278 277 276 276
308 308 309 308 306 306 304 300 303 300 297 297 295 296 296 295 293 291 291 292 292 291 290 290 288 288 288 288 288 287 286 284 283 282 281 280 279 278 277 276 275 274 273 272
308 310 309 309 306 304 300 299 297 296 295 293 293 293 292 292 291 289 289 289 289 288 286 286 286 286 286 284 283 283 282 281 280 279 277 276 275 274 273 272 272 271 270 270
304 305 305 305 302 300 297 296 295 294 291 291 291 291 291 290 288 286 286 287 286 285 282 283 283 283 282 281 280 279 278 277 276 275 274 273 272 272 271 270 269 269 268 268
297 297 297 298 296 296 293 291 292 290 289 290 290 288 287 286 286 286 286 285 282 281 281 281 281 281 278 277 276 276 275 274 273 272 272 271 270 269 269 269 268 268 267 267
292 291 289 290 288 288 288 288 290 288 287 289 290 287 285 284 284 284 285 283 278 279 279 279 277 276 275 275 274 273 273 272 271 270 270 269 269 269 268 268 267 267 267 267
288 288 286 285 285 284 285 286 288 288 286 287 287 285 285 283 284 283 281 281 277 277 276 275 275 274 273 272 272 272 271 270 270 270 269 269 268 268 267 267 267 267 266 266
285 285 286 287 285 285 285 286 285 285 285 285 284 284 284 283 282 281 279 275 275 274 274 274 272 272 272 271 271 270 270 270 269 269 268 268 268 268 268 267 267 266 266 266
283 284 283 283 285 285 283 282 283 284 284 284 283 283 283 281 278 277 275 274 273 273 273 272 271 271 271 270 270 270 269 269 268 268 268 268 268 268 267 266 266 266 266 266
282 282 282 283 283 281 283 283 283 282 282 281 280 279 279 277 278 274 274 273 272 272 272 271 270 270 270 270 269 269 269 268 268 268 268 268 267 267 267 267 267 267 266 266
282 282 282 283 282 283 283 283 283 281 280 279 277 276 275 275 274 273 272 272 271 271 271 270 270 270 269 269 268 268 268 268 268 268 267 267 267 267 267 267 267 266 266 266
282 283 283 283 282 283 283 282 281 279 278 277 276 274 274 273 272 272 271 271 271 270 270 270 269 269 269 268 268 269 268 268 268 267 267 267 267 267 267 267 266 266 266 266

GFSNGP_850_thetae_093.txt.gz
Theta_e
310 310 309 312 312 312 315 317 317 317 318 318 319 320 321 320 319 319 319 318 319 320 322 322 322 322 322 323 323 323 322 321 320 318 317 317 317 317 317 317 318 318 319 319
311 310 311 311 312 314 316 317 317 316 317 317 318 318 317 318 318 319 321 320 320 320 320 321 321 321 322 322 323 323 323 323 323 322 321 319 318 318 318 318 318 319 322 323
313 312 313 315 314 316 317 317 317 318 318 317 317 317 318 318 318 317 319 320 320 321 321 320 320 321 322 323 323 323 323 323 323 323 323 323 322 322 322 323 323 323 323 324
310 312 315 313 313 316 316 315 315 317 317 317 318 317 318 318 318 318 317 319 320 320 319 318 319 319 319 321 322 323 323 323 323 323 324 324 323 323 323 323 323 323 324 323
310 312 314 309 316 315 316 317 316 315 316 317 317 315 315 317 318 316 316 317 318 318 317 318 318 319 320 320 321 322 323 323 323 323 322 323 323 323 323 322 323 322 320 319
310 312 312 313 315 315 315 319 318 317 317 316 316 319 318 315 316 316 314 315 315 317 317 318 319 321 322 323 323 322 322 322 322 322 321 321 321 321 321 319 318 318 316 315
308 311 313 313 315 316 317 320 315 317 317 316 317 317 316 317 317 318 316 317 319 320 320 320 321 322 321 322 322 321 321 320 320 319 319 318 317 316 315 315 314 313 312 310
309 311 311 313 315 316 314 313 314 316 317 317 315 316 317 318 319 319 317 317 318 319 319 320 320 320 320 320 318 319 318 317 316 314 313 312 311 311 311 310 309 308 306 304
312 310 313 312 311 311 313 313 314 316 317 317 315 316 319 319 318 317 316 313 315 317 317 317 317 319 318 315 315 315 314 312 311 310 309 309 308 307 307 304 303 300 298 296
310 310 311 311 310 311 312 312 315 316 317 318 316 316 317 318 317 316 315 315 316 316 316 314 314 312 312 311 311 310 310 309 307 307 305 304 303 301 300 298 297 295 294 293
309 308 310 310 310 309 311 313 314 315 317 318 318 317 313 311 315 315 313 313 314 313 312 310 310 309 308 308 308 308 306 303 302 302 301 299 298 295 295 293 293 292 291 290
308 307 308 309 309 309 313 313 314 315 316 316 318 318 316 313 307 308 311 310 309 307 308 308 309 306 304 304 305 305 303 300 298 298 296 295 294 292 291 290 289 288 287 287
306 305 307 307 308 310 310 312 314 315 314 314 312 316 316 311 309 310 307 305 304 304 303 305 305 303 300 300 301 300 299 296 295 294 293 292 290 289 288 285 285 284 283 282
306 306 307 308 306 306 310 311 311 313 313 312 310 309 310 306 302 302 302 303 302 304 301 300 300 297 295 295 296 296 295 294 293 291 290 289 287 286 285 284 283 282 280 280
306 305 305 305 307 308 309 309 306 311 309 311 307 307 306 299 298 294 295 298 298 298 296 295 294 293 293 294 294 293 292 290 289 288 287 286 284 283 282 280 279 278 277 277
305 306 309 309 309 308 307 307 302 299 301 304 300 295 298 295 292 292 293 294 296 293 291 293 292 290 290 290 290 289 288 286 285 284 282 282 281 280 279 277 276 275 274 273
306 307 308 307 306 304 303 304 302 297 297 298 296 294 293 291 291 291 291 292 292 290 289 290 288 287 287 287 286 285 284 283 282 281 279 277 276 275 274 273 272 272 271 271
306 307 307 307 306 304 301 300 295 292 293 294 292 291 290 291 289 287 287 288 289 288 286 286 285 284 284 284 283 281 280 278 278 277 275 275 274 273 272 271 271 270 270 269
303 304 303 304 303 301 299 294 289 288 290 291 291 290 290 288 287 286 286 288 287 286 282 282 282 282 280 278 278 278 277 276 275 274 273 272 272 271 271 270 270 269 269 269
298 299 298 296 294 295 293 289 286 286 286 290 289 288 285 284 285 286 286 285 283 282 280 280 279 278 277 276 276 276 275 274 274 273 272 272 271 270 270 269 269 269 268 268
291 292 292 292 290 288 287 285 286 285 284 287 288 286 284 284 284 284 284 284 279 279 277 276 276 276 275 275 275 274 274 273 273 272 271 270 270 269 269 269 268 268 268 267
287 287 286 286 286 284 283 283 286 286 286 286 286 285 284 283 283 283 281 280 276 275 275 275 275 274 274 274 274 273 273 272 271 270 270 269 269 269 269 268 268 268 268 267
284 284 283 283 283 282 282 283 283 285 285 284 283 283 283 281 281 280 277 274 274 274 275 274 273 273 273 273 272 272 271 270 270 270 270 269 269 268 268 268 268 268 267 267
282 281 281 280 280 280 280 280 283 284 283 282 284 283 282 280 277 275 275 274 274 274 274 273 272 272 272 271 271 270 270 270 270 270 269 269 268 268 268 268 267 267 267 266
281 280 280 280 280 278 279 281 281 280 281 281 280 279 278 276 277 274 273 273 272 273 273 272 271 271 271 270 270 270 270 270 269 269 268 268 268 268 268 267 267 267 267 267
280 280 280 280 280 280 280 282 282 281 281 279 277 276 275 275 274 273 273 272 272 272 271 271 270 270 270 270 270 270 269 269 268 268 268 268 268 268 267 267 267 267 267 267
280 280 281 281 281 282 283 282 282 279 277 276 275 274 273 273 272 272 272 272 271 271 270 270 270 270 270 270 269 269 268 268 268 268 268 268 268 267 267 267 267 267 267 267

GFSNGP_850_thetae_099.txt.gz
Theta_e
308 309 309 310 311 312 314 316 319 320 319 320 320 320 319 319 319 320 323 324 325 327 328 328 329 329 328 328 326 324 324 324 324 324 324 324 324 324 323 322 322 322 322 322
309 309 309 310 310 310 311 312 314 316 317 317 318 317 319 319 319 319 320 321 323 324 326 327 328 329 328 328 328 326 326 325 325 324 324 324 323 323 322 322 322 322 321 321
311 309 309 312 311 310 310 310 311 314 316 317 319 319 318 318 318 318 320 321 322 323 324 326 328 328 328 328 328 327 327 326 326 325 325 324 324 323 323 322 322 322 322 322
310 310 312 311 312 314 314 314 312 311 312 316 318 319 318 318 318 318 321 321 322 322 323 323 326 328 328 328 328 328 327 326 326 326 325 325 324 323 322 322 321 321 321 321
309 309 309 309 310 313 314 316 316 318 318 321 321 320 319 319 318 319 321 321 320 321 321 322 324 327 328 328 328 328 327 327 326 326 325 324 323 322 321 321 321 321 320 319
309 309 309 309 314 313 317 319 318 318 318 320 320 325 321 320 320 322 321 322 322 322 323 323 324 325 327 327 327 326 326 324 324 323 323 322 321 321 321 320 319 315 314 312
310 311 310 309 310 311 316 318 315 315 316 316 320 320 320 323 320 321 321 321 321 321 322 322 322 323 324 324 324 323 323 322 321 321 321 321 319 317 315 313 311 308 307 304
309 312 313 309 310 313 314 313 313 313 314 316 316 316 321 318 316 316 316 315 315 315 317 318 318 317 318 319 318 320 320 319 317 316 316 313 313 310 309 308 307 303 302 300
311 311 309 309 311 311 310 310 312 312 314 315 315 316 316 312 311 310 311 312 312 313 312 313 314 316 317 312 311 315 319 314 311 310 309 309 308 306 304 303 302 299 298 296
310 310 310 309 310 307 308 309 310 312 312 316 315 317 315 311 308 305 305 308 308 310 310 308 310 309 311 308 309 311 310 308 305 307 304 304 304 301 299 297 296 295 294 292
310 309 309 308 309 309 308 309 309 311 312 316 316 317 313 309 307 305 303 303 307 307 305 303 305 306 305 306 307 307 307 303 301 301 301 299 299 297 296 294 293 293 291 290
310 309 309 309 308 308 308 309 311 311 315 315 314 311 308 306 304 303 303 299 304 305 303 301 300 303 301 301 305 305 303 300 299 298 297 297 295 292 290 290 290 290 289 288
308 307 307 307 307 308 308 311 308 310 311 308 304 303 302 299 300 298 298 297 296 298 298 297 297 298 298 299 302 302 299 296 295 294 293 292 290 289 288 285 286 286 285 284
306 306 307 307 308 308 308 309 306 305 303 301 302 302 299 298 296 298 297 296 294 293 296 296 296 296 297 299 299 298 296 294 291 289 288 287 285 284 282 281 280 280 279 279
306 307 308 308 308 307 308 308 307 303 298 297 298 299 296 294 295 294 294 296 296 293 291 291 291 291 294 296 297 295 293 292 291 290 288 285 283 282 281 280 279 277 276 275
307 307 308 309 308 309 308 308 307 300 295 293 297 295 296 295 291 289 291 292 293 291 291 293 293 292 294 294 293 291 290 289 288 286 284 281 280 279 278 277 276 275 274 274
306 306 307 309 309 309 308 306 305 298 293 292 292 292 295 293 289 288 289 290 291 290 289 290 288 289 287 287 289 288 287 286 283 280 279 278 278 277 277 276 275 273 273 272
304 303 304 305 306 307 304 302 298 296 293 293 292 291 289 291 289 288 288 289 289 289 289 289 288 287 286 285 285 283 281 280 279 278 277 276 276 275 274 274 273 273 272 272
299 299 300 300 303 305 301 297 293 293 292 292 291 288 287 288 287 286 285 287 288 288 284 285 285 283 281 280 280 280 279 279 278 277 276 275 274 274 273 272 272 271 271 270
296 296 296 296 296 297 294 292 291 290 288 288 287 285 284 283 283 283 284 283 280 280 281 279 279 279 279 278 279 278 278 278 277 275 274 274 273 272 272 272 271 270 270 269
291 291 292 292 292 292 290 288 287 286 284 284 286 283 282 282 283 284 283 280 275 275 275 277 277 277 277 277 278 277 276 275 274 273 273 272 271 271 271 270 269 269 268 268
287 287 287 287 287 286 284 283 283 282 281 282 282 282 281 281 282 283 282 281 276 276 276 276 277 277 276 276 276 275 274 273 272 271 271 271 271 270 270 269 269 268 268 268
283 283 283 283 283 282 281 280 280 281 280 280 281 280 281 279 279 281 279 276 276 276 276 276 275 275 275 275 275 274 273 273 272 272 271 271 270 270 269 270 269 269 269 269
281 281 280 280 280 280 278 277 278 278 278 278 280 280 280 281 279 278 276 275 276 276 276 275 274 274 275 274 273 272 272 271 271 272 271 271 270 270 270 270 270 269 269 269
280 279 278 278 277 276 277 277 277 278 279 278 278 279 280 278 279 275 275 274 274 275 275 274 273 273 273 272 272 272 271 271 271 271 271 270 270 270 270 270 269 269 269 269
280 280 279 278 277 276 276 276 277 278 279 279 279 278 276 275 275 274 274 274 273 273 273 272 272 272 272 272 272 271 271 271 271 270 270 270 270 270 270 269 269 269 269 268
278 278 277 276 276 276 276 277 278 277 278 279 277 274 274 274 274 273 273 273 273 273 272 272 272 272 271 271 271 271 271 270 270 270 270 269 269 269 269 269 269 269 268 268

GFSNGP_850_thetae_102.txt.gz
Theta_e
307 307 307 309 310 311 312 315 320 319 319 319 320 320 321 320 320 320 320 321 323 328 329 330 330 329 328 328 326 325 325 325 325 324 323 323 323 322 322 321 321 321 321 321
306 307 308 307 308 309 310 311 312 314 315 315 316 317 317 317 318 318 319 319 319 325 327 329 330 330 329 328 327 325 325 324 325 325 325 324 324 324 323 323 322 322 322 322
307 308 308 308 308 308 309 311 312 312 313 313 315 316 317 318 318 319 318 318 318 322 324 328 329 330 330 329 328 327 325 325 324 324 325 325 324 324 323 322 322 321 322 321
309 309 311 310 309 311 312 311 311 312 311 311 312 314 320 321 318 319 318 318 319 322 323 323 328 329 329 329 329 328 327 326 326 325 325 325 324 324 322 322 322 321 321 321
309 308 309 308 310 313 318 317 318 318 319 319 319 320 321 321 323 323 323 321 321 321 322 323 326 328 328 329 329 328 328 327 327 326 326 325 324 323 322 322 322 321 320 318
309 309 308 308 311 311 312 315 317 316 316 316 317 322 321 319 322 321 322 323 323 323 320 322 323 328 328 329 329 329 328 327 327 326 326 325 323 322 321 321 321 317 316 311
310 311 310 309 309 310 311 315 314 314 314 315 318 318 318 317 319 318 318 319 321 323 323 322 324 327 328 328 329 328 326 326 326 325 325 322 321 320 318 317 315 310 308 304
310 310 310 311 311 313 314 311 312 313 313 314 314 316 316 318 314 314 315 315 316 317 320 321 323 324 326 324 320 322 322 323 322 323 323 321 318 313 310 307 306 303 301 298
310 310 311 311 312 312 311 311 311 311 312 312 313 316 315 317 315 311 310 311 312 313 312 315 316 318 320 318 319 318 319 319 318 315 311 310 312 305 303 302 300 297 297 296
311 311 311 310 309 309 309 308 308 309 310 310 314 316 315 313 310 308 306 307 307 308 310 310 310 311 315 312 312 314 316 311 307 305 301 300 303 299 298 297 296 295 295 293
310 311 310 310 310 309 309 307 308 309 311 310 315 315 313 308 304 302 302 303 303 303 303 302 303 303 304 305 306 308 306 303 302 302 301 298 298 297 296 294 294 294 292 292
311 310 309 309 309 308 308 308 311 311 312 311 309 307 307 305 301 299 299 299 299 299 299 298 299 299 299 300 304 305 302 301 300 296 297 297 295 295 292 291 290 290 288 287
308 307 307 307 307 308 308 310 309 309 308 305 304 304 302 301 298 299 298 299 297 296 297 296 296 296 295 297 300 302 300 298 297 296 295 294 295 292 290 285 286 285 283 281
306 306 307 308 309 309 308 308 307 305 303 303 301 299 297 297 295 297 297 295 294 293 293 294 294 292 293 294 295 294 294 294 294 292 291 289 288 285 284 283 280 278 278 278
307 307 308 308 309 308 309 309 307 301 299 298 297 296 295 295 293 292 292 293 294 294 293 293 293 292 293 294 296 295 294 291 290 289 287 285 283 281 280 279 277 276 276 275
305 307 307 307 309 309 309 309 307 300 299 297 296 295 293 291 292 291 290 290 293 292 291 291 291 290 293 294 294 293 291 289 287 286 284 283 281 279 278 278 277 276 275 275
306 307 307 306 306 308 308 307 306 299 297 294 293 291 291 289 289 289 289 288 288 287 288 289 289 290 292 292 291 288 286 285 284 282 280 279 279 278 278 277 276 274 274 273
303 303 303 303 304 304 306 303 301 299 297 294 291 290 288 288 287 286 289 289 289 288 287 288 288 289 289 287 287 284 281 280 280 279 278 278 277 276 276 275 274 274 273 273
297 297 298 300 300 302 303 298 296 294 292 290 289 287 286 285 285 284 284 287 286 285 282 285 286 287 284 281 280 279 279 279 278 278 277 276 276 275 274 274 273 273 272 272
292 293 294 296 297 299 298 295 293 290 288 287 286 285 283 282 282 282 283 283 282 280 280 280 279 279 279 278 279 279 279 278 277 276 275 275 274 273 273 273 272 271 271 271
288 289 290 290 291 292 292 291 290 287 283 284 284 283 282 281 282 283 283 283 277 279 278 277 277 277 277 277 277 277 277 276 276 275 275 274 273 273 272 272 272 272 271 270
285 286 286 286 286 285 285 285 286 284 282 282 282 281 281 280 281 282 280 278 276 277 278 278 278 278 278 278 277 276 275 275 274 274 273 273 273 273 272 272 271 270 270 270
283 283 283 283 283 282 281 281 281 281 280 280 280 280 280 279 279 281 279 277 276 276 276 276 276 277 277 277 276 276 275 275 274 274 274 274 273 272 272 271 271 270 270 270
281 281 280 280 279 279 278 277 278 278 278 278 279 280 280 280 279 279 279 277 276 276 276 275 275 276 276 275 275 275 274 274 274 273 273 273 272 272 271 271 271 270 270 269
280 280 279 278 277 276 277 277 277 277 277 277 278 278 279 279 281 277 276 275 275 275 275 274 275 275 275 275 275 275 274 273 273 272 272 272 271 271 271 271 270 270 269 269
281 280 279 278 277 276 276 276 275 276 277 277 277 278 278 277 276 275 274 273 273 273 274 273 274 274 274 274 273 273 272 272 272 272 272 271 271 271 270 270 270 269 269 269
279 278 278 277 277 276 276 276 276 276 276 277 277 276 276 274 273 273 273 273 273 273 273 274 274 273 273 273 273 272 271 271 271 271 271 270 270 270 270 269 269 269 269 269

GFSNGP_850_thetae_108.txt.gz
Theta_e
304 304 303 303 303 303 304 307 311 310 310 310 311 316 318 317 316 316 317 319 320 325 328 328 328 327 327 326 319 319 320 321 321 323 323 322 321 321 322 321 320 320 320 320
304 304 304 304 303 303 303 304 305 307 308 309 313 313 316 315 317 321 322 322 322 321 326 328 329 328 327 326 325 320 322 321 322 321 321 322 321 320 320 320 320 319 319 319
304 304 305 305 304 304 304 304 305 305 308 315 316 317 319 320 320 320 319 318 319 322 320 320 324 323 328 327 325 324 322 324 322 322 322 322 321 321 321 319 319 318 320 321
304 305 304 303 305 306 305 306 309 313 315 315 314 318 317 318 318 317 316 316 317 318 322 322 320 323 328 328 327 325 325 324 324 323 322 322 323 322 321 322 321 320 322 322
300 304 304 304 307 310 310 309 314 315 314 313 313 316 314 316 315 315 315 315 315 316 318 322 324 326 325 327 328 326 325 325 325 324 323 322 322 322 322 320 321 321 322 321
302 304 307 307 308 308 309 312 312 313 313 313 312 313 311 315 315 314 315 315 314 315 315 321 326 328 327 326 322 326 326 325 325 325 324 323 323 323 322 321 321 321 320 318
303 300 305 306 306 306 311 312 312 311 311 311 311 311 312 315 314 313 313 313 314 314 314 316 322 325 328 325 324 325 325 325 325 325 325 325 324 324 323 321 320 316 314 311
304 301 304 308 310 310 309 310 310 310 309 308 311 315 315 312 311 310 311 312 312 312 311 311 316 321 324 324 323 323 323 324 324 324 325 324 323 321 318 317 315 310 308 304
301 303 306 309 309 310 309 308 308 308 308 311 311 313 311 308 308 308 307 308 308 310 311 310 311 313 317 317 317 317 319 321 321 321 320 319 319 314 311 310 310 304 300 295
307 307 307 309 309 309 309 308 307 308 311 310 310 310 308 307 306 304 304 305 303 306 307 308 308 310 310 310 312 313 313 311 310 310 307 305 304 299 298 297 296 293 290 289
307 305 306 307 307 308 308 308 308 310 309 308 308 307 304 303 303 301 301 301 301 302 301 301 302 305 307 305 305 307 307 305 303 303 301 298 297 294 293 291 292 291 291 289
306 306 306 307 307 308 308 308 309 309 308 306 304 306 304 303 299 298 298 298 298 298 298 296 298 298 299 299 300 301 299 295 294 294 293 292 292 290 292 292 292 291 291 291
304 304 305 306 308 309 309 308 307 306 304 304 303 303 301 299 298 297 296 297 297 297 296 295 295 295 295 296 296 295 293 290 290 290 289 289 289 288 283 283 285 285 284 282
306 305 307 308 308 307 307 305 305 305 303 301 300 300 299 296 294 295 292 293 293 295 295 294 294 294 293 295 295 294 291 291 292 292 292 292 291 289 288 287 285 279 278 278
305 307 306 306 308 308 308 305 305 304 302 300 299 299 296 295 293 292 291 292 293 293 292 291 291 289 290 292 294 294 295 293 292 291 291 290 289 287 285 282 278 278 277 277
302 304 304 302 303 306 306 306 305 303 300 299 298 296 293 292 291 290 290 291 292 291 289 290 290 289 290 291 292 291 291 290 290 290 288 288 287 284 281 279 277 277 276 276
297 297 298 299 300 301 302 303 302 300 298 296 295 294 291 290 290 289 289 289 290 288 288 289 288 288 290 290 291 291 290 289 289 288 286 282 281 280 279 278 277 276 276 275
293 292 294 295 297 299 299 298 298 297 296 293 293 292 290 288 288 287 287 287 287 287 287 287 287 288 289 289 290 290 289 288 285 282 280 279 278 278 277 277 276 276 275 274
288 288 291 293 293 295 296 296 295 294 295 294 291 289 288 287 286 285 285 286 286 286 284 285 286 287 288 288 289 289 286 283 282 281 280 279 278 276 275 275 275 275 274 274
287 289 289 290 291 292 293 293 293 292 291 290 288 286 285 284 284 284 284 285 284 283 283 285 285 286 285 284 283 282 281 281 280 279 278 277 276 275 275 275 275 275 274 274
285 286 287 288 288 288 289 289 289 288 286 286 286 284 283 282 282 283 284 284 281 281 282 283 285 282 280 280 279 279 279 278 277 276 276 276 276 275 275 275 274 274 274 273
283 284 284 285 285 285 285 285 285 285 283 283 283 283 282 281 281 282 282 282 280 281 282 282 280 279 279 278 278 278 278 277 277 276 276 276 276 275 274 274 274 273 273 272
282 282 282 282 282 282 282 282 282 282 281 281 281 280 281 280 280 281 280 278 279 280 280 278 277 278 278 278 278 277 277 277 276 276 275 275 274 274 273 273 273 272 272 272
281 280 280 280 280 280 280 279 279 279 279 279 279 279 280 280 279 279 279 278 279 279 277 277 276 276 277 277 277 276 276 276 275 275 274 274 273 273 272 272 272 272 272 271
279 279 278 278 278 278 277 277 277 277 277 277 278 278 278 278 280 277 277 277 278 276 276 276 276 275 276 276 275 275 275 275 274 273 273 273 273 273 272 272 272 271 271 271
279 279 278 277 277 276 276 276 277 276 276 276 276 277 277 277 278 277 277 276 275 275 275 275 275 275 275 275 274 274 274 273 273 273 272 272 272 272 271 271 271 271 271 270
278 277 277 276 276 276 276 276 276 275 276 276 277 275 276 276 276 276 275 274 275 274 274 274 274 274 274 274 273 273 272 272 272 272 272 271 271 271 271 270 270 270 270 270

GFSNGP_850_thetae_111.txt.gz
Theta_e
302 303 303 302 302 302 302 304 305 303 305 306 307 309 311 315 315 315 317 320 320 320 325 325 327 327 326 326 324 322 321 320 322 324 324 323 323 323 322 323 323 322 322 322
303 303 303 303 303 303 303 303 302 302 302 304 307 310 313 316 317 316 316 318 318 318 320 322 326 326 327 327 326 322 322 321 321 323 324 324 323 322 321 322 322 321 321 321
301 303 303 302 302 303 302 302 302 302 303 308 314 315 317 316 316 318 317 316 316 317 318 321 320 325 327 327 326 324 322 322 321 321 323 323 322 321 321 321 321 320 320 320
303 303 301 301 302 302 304 304 307 303 307 314 313 316 316 316 316 315 314 314 316 314 316 319 322 320 325 327 327 326 324 323 322 322 321 321 322 320 320 320 321 320 319 319
298 302 300 300 301 306 310 310 310 308 313 313 312 315 314 314 315 313 313 312 313 314 314 316 323 322 322 327 327 326 326 325 324 323 322 321 321 321 320 320 319 320 320 319
300 301 299 302 307 307 307 309 311 311 312 312 311 316 312 313 313 311 310 310 312 313 313 314 321 325 325 326 326 326 324 324 325 324 323 322 322 320 320 320 320 319 318 318
301 297 301 303 304 307 306 311 309 311 311 310 310 310 311 313 310 308 308 309 310 311 312 313 316 322 324 325 325 325 324 324 324 324 323 323 322 321 320 320 320 319 317 316
303 299 301 307 308 309 309 308 310 310 308 308 312 312 311 310 309 308 309 308 307 309 310 310 311 313 320 322 323 322 324 324 324 324 324 323 322 322 320 320 319 316 313 309
302 301 304 307 309 308 308 308 308 308 307 310 310 309 308 306 305 305 307 303 304 308 309 310 309 311 312 314 316 319 320 323 323 323 323 321 319 318 315 312 308 307 303 299
305 306 305 307 307 308 309 309 308 308 310 310 308 307 305 305 304 302 303 300 301 303 304 306 308 307 309 308 309 314 317 314 317 316 313 309 307 308 308 302 302 295 295 294
307 304 304 306 305 306 306 307 307 308 307 306 305 302 302 303 302 301 299 297 298 299 300 300 302 304 304 306 306 309 310 307 306 305 303 301 300 297 296 293 294 290 287 289
304 303 303 304 305 306 307 307 306 306 305 303 302 298 298 300 297 297 297 296 295 297 297 296 299 301 299 300 302 306 305 301 298 297 295 294 293 291 292 292 293 293 293 291
303 304 305 307 306 306 306 304 304 304 302 300 299 298 298 297 295 295 296 295 294 294 294 294 295 297 297 296 298 300 300 296 294 293 292 291 291 291 288 287 288 289 289 290
305 306 306 306 304 305 307 306 303 303 300 298 297 297 296 295 293 294 294 293 292 291 291 291 291 292 292 292 294 295 294 291 291 290 290 290 290 290 289 288 285 282 281 281
300 302 302 303 304 304 303 303 303 302 300 298 296 296 294 293 293 292 292 291 290 290 289 289 288 288 288 289 290 290 291 291 291 291 291 290 289 287 286 285 284 282 279 278
296 297 299 299 300 301 301 302 301 299 297 295 295 294 293 291 291 291 290 290 291 289 287 287 286 285 286 287 288 288 288 288 289 288 288 288 288 287 286 284 281 279 278 278
292 293 292 292 295 296 297 298 298 297 296 294 293 293 291 290 290 289 288 289 289 288 287 287 285 285 286 287 289 289 289 289 290 289 289 289 289 285 281 279 279 277 277 276
288 288 288 288 290 292 295 296 296 295 294 293 292 291 290 288 288 287 286 287 287 287 287 287 287 287 288 289 289 289 289 288 288 289 286 282 281 280 280 279 278 277 276 275
287 286 288 289 289 290 291 293 293 293 293 292 290 289 288 287 286 285 285 286 286 286 285 286 287 287 288 288 289 289 289 286 283 281 280 280 279 279 278 277 277 276 275 275
286 287 287 288 288 289 290 290 290 290 290 289 288 286 286 285 285 284 285 285 285 285 284 285 286 287 287 288 288 285 282 282 281 280 279 278 278 277 276 276 276 275 275 275
285 285 285 285 286 286 287 287 287 287 287 285 285 285 284 283 283 283 284 284 282 282 284 285 285 285 285 283 282 281 281 280 279 279 278 278 277 277 276 276 275 275 274 274
283 284 284 284 284 284 284 284 284 284 283 283 283 283 282 281 282 282 283 283 281 281 282 284 284 282 281 280 280 279 279 279 279 278 277 277 276 276 275 274 274 273 273 272
281 281 281 281 281 281 281 281 281 281 281 281 281 280 281 281 280 281 281 279 280 280 282 282 279 278 278 278 278 278 278 277 277 276 276 275 275 274 274 273 273 272 272 272
280 280 280 279 279 279 280 279 279 279 279 279 279 279 280 280 279 279 279 279 279 280 279 277 277 277 277 277 277 277 276 276 275 275 274 274 273 273 273 272 272 272 272 271
280 279 279 278 278 278 278 277 277 277 277 277 278 278 278 278 280 278 278 278 278 277 277 276 276 276 276 276 276 275 275 274 274 274 273 273 273 272 272 272 272 271 271 271
279 278 278 277 277 276 276 276 276 276 276 276 276 277 277 277 277 277 277 277 277 276 276 275 275 275 275 275 274 274 274 273 273 273 273 272 272 272 272 271 271 271 271 271
279 278 277 276 276 275 275 276 276 276 275 276 276 275 276 276 276 276 276 275 274 274 274 274 274 274 274 274 273 273 273 273 272 272 272 272 271 271 271 271 271 270 270 270

GFSNGP_850_thetae_114.txt.gz
Theta_e
302 302 302 301 302 301 301 303 303 301 300 301 301 302 303 304 312 315 314 314 312 315 313 316 321 324 325 325 327 324 322 322 321 319 320 320 321 321 321 321 322 322 321 321
302 302 302 302 302 301 302 302 301 301 301 301 302 302 302 309 314 315 314 313 314 314 313 314 316 321 324 325 325 325 323 322 321 320 320 320 320 320 320 321 321 322 321 321
301 302 302 301 300 301 301 301 301 302 302 301 301 304 313 315 316 316 315 315 314 316 314 315 315 319 323 324 325 325 324 322 321 321 321 321 320 320 323 319 320 319 319 320
302 302 299 298 300 300 301 301 301 302 302 305 305 314 315 315 315 314 313 314 312 313 313 314 316 319 320 323 324 325 324 322 321 323 322 321 320 321 320 320 318 318 318 318
297 301 299 299 299 303 308 306 305 305 307 306 311 314 313 314 314 312 311 310 311 310 310 312 314 319 318 320 323 325 325 322 321 321 321 322 320 320 320 319 319 319 318 318
300 301 298 299 302 307 306 303 306 306 310 310 310 313 313 312 313 310 308 308 308 309 309 310 310 315 322 321 321 324 324 324 323 322 322 321 321 320 319 319 318 318 318 318
303 302 301 300 301 304 305 305 304 306 309 309 309 309 311 311 309 308 308 307 306 305 305 307 309 314 319 323 323 324 325 324 323 323 323 322 320 320 319 319 318 318 317 316
304 302 299 305 306 306 308 307 307 308 309 308 311 311 309 307 306 306 306 305 304 304 304 306 308 310 314 319 321 322 324 324 323 322 323 323 322 321 319 319 318 316 313 310
303 301 303 304 306 307 306 307 308 306 306 310 309 307 306 303 303 303 301 300 302 303 303 304 305 307 310 313 313 319 324 323 321 322 321 322 319 318 316 315 314 311 308 305
304 305 304 303 305 305 306 305 307 307 309 309 307 305 302 301 300 301 300 299 299 300 301 301 300 303 306 307 308 312 315 318 316 314 319 318 315 312 310 307 306 303 305 299
304 304 303 306 306 305 305 306 306 306 306 304 302 300 299 299 298 297 297 297 297 297 297 297 298 298 300 303 303 307 308 305 306 306 308 310 304 303 302 299 300 296 295 293
304 302 302 304 304 304 303 301 301 302 301 300 299 300 298 297 296 295 295 296 296 295 295 295 294 296 296 297 300 301 302 301 299 300 300 298 296 292 292 293 294 294 293 294
300 301 304 301 301 302 303 301 299 301 301 297 298 299 298 297 295 294 294 294 294 293 292 293 293 293 292 293 296 297 297 295 295 295 294 293 292 291 289 289 290 290 290 290
299 301 300 300 301 301 300 299 299 298 296 295 296 297 296 295 294 293 292 291 292 291 291 291 291 291 290 290 292 293 293 291 291 291 291 291 291 290 289 288 285 283 284 285
296 295 295 296 299 299 298 298 298 297 296 295 294 295 294 292 291 291 290 290 290 289 288 288 288 287 288 288 290 289 290 290 290 289 289 289 288 288 288 286 284 283 282 281
292 293 293 293 292 293 296 296 296 295 294 293 293 293 293 291 290 289 289 288 289 288 285 286 287 286 287 287 287 287 287 287 287 287 286 287 287 287 288 287 286 285 282 279
290 290 289 289 289 290 291 292 293 293 293 292 291 291 289 289 288 288 287 287 287 286 286 286 285 285 286 286 288 287 287 287 287 287 287 288 288 288 288 287 283 279 278 278
287 287 286 286 287 288 290 290 290 291 291 291 290 289 288 287 287 286 286 286 286 285 285 286 287 287 288 288 288 288 288 287 287 288 288 287 287 285 283 280 279 278 277 276
285 286 286 284 286 287 288 289 289 288 289 288 288 287 286 286 285 285 285 285 286 286 284 285 286 288 288 288 288 288 288 289 288 287 286 284 281 280 279 278 277 277 276 276
285 285 285 285 285 286 286 287 287 287 287 286 285 285 285 284 283 283 284 285 285 285 284 284 285 287 287 287 288 288 288 287 285 282 280 280 279 278 277 277 276 276 275 275
284 283 283 283 283 284 284 284 285 285 285 284 283 283 283 282 283 283 283 284 282 283 283 284 285 286 286 286 284 282 281 281 280 280 279 278 278 277 276 276 275 275 274 274
283 283 282 282 281 282 282 282 282 282 283 283 282 282 282 281 281 282 282 282 281 281 283 284 284 283 281 281 280 280 279 279 279 278 277 277 276 276 275 275 274 274 274 273
281 281 280 280 280 280 280 280 280 280 281 280 280 280 281 281 281 281 281 280 280 280 282 282 280 279 279 279 278 278 278 278 277 277 276 276 275 275 274 274 273 273 273 273
280 280 279 279 278 278 279 279 278 279 279 279 279 279 279 280 279 279 279 279 279 280 280 278 277 277 277 277 277 277 277 276 276 275 275 275 274 274 274 273 273 273 273 272
280 279 278 277 277 277 277 277 277 277 277 277 277 277 278 278 279 278 278 278 278 278 277 276 276 276 276 276 276 276 276 275 275 275 274 274 274 274 273 273 273 272 272 272
279 278 277 277 276 276 275 275 276 276 276 276 276 276 277 277 277 276 276 277 276 276 276 276 277 277 276 275 275 275 275 274 274 274 274 273 273 273 273 272 272 272 271 271
278 278 277 276 276 275 275 275 275 275 275 275 276 275 275 275 275 275 276 276 276 275 275 275 274 274 274 274 274 274 274 273 273 273 273 273 272 272 272 271 271 271 271 271

GFSNGP_850_thetae_117.txt.gz
Theta_e
301 302 302 302 302 302 302 302 302 303 302 302 303 303 302 302 303 304 313 315 315 315 313 312 314 315 318 321 323 323 325 323 321 322 322 321 321 321 321 321 321 321 321 322
302 302 301 302 303 303 303 303 303 303 303 304 303 302 303 303 305 312 316 317 316 315 314 313 314 314 316 319 322 323 324 322 321 321 320 321 321 321 321 320 321 321 321 321
299 300 301 301 301 302 302 302 302 302 302 302 303 303 304 306 311 316 315 313 312 312 314 313 313 313 316 318 319 323 323 322 321 321 320 320 321 321 320 320 321 320 321 321
301 301 299 300 301 301 301 302 302 302 303 304 304 304 305 314 315 314 311 310 310 311 311 311 312 314 315 318 319 320 323 322 323 320 321 320 320 321 320 320 320 319 319 320
301 301 300 300 300 300 300 302 305 306 308 308 309 307 310 312 313 311 308 307 308 308 308 310 310 312 314 316 319 320 322 322 323 321 320 319 320 320 320 319 319 318 318 318
301 301 300 300 304 305 305 302 306 305 305 309 311 311 311 311 309 307 307 306 306 306 306 308 309 310 314 317 318 321 322 323 323 321 320 319 320 320 319 319 319 318 318 318
303 303 303 301 304 304 301 305 307 305 303 309 310 311 308 308 306 304 303 302 302 302 304 305 307 308 311 314 317 319 321 322 321 321 320 319 320 319 319 318 318 317 318 317
304 304 303 305 305 306 307 305 304 306 306 306 309 307 307 303 302 302 301 300 299 300 303 304 306 307 308 310 310 315 320 321 321 321 321 320 319 318 319 319 318 317 316 315
304 303 303 304 304 306 307 305 305 307 307 309 308 304 302 299 301 300 298 298 298 297 299 302 303 304 304 306 309 309 315 317 320 320 320 320 319 319 317 317 317 315 313 311
304 305 305 303 304 305 305 305 305 304 304 302 301 299 299 300 298 297 297 296 296 296 296 298 300 301 300 300 304 307 314 317 316 317 319 315 314 313 310 312 309 308 306 304
304 303 301 303 301 302 301 301 301 301 299 298 297 297 298 298 296 295 295 294 294 294 294 294 296 298 299 299 299 300 302 302 304 308 306 309 309 306 306 301 307 303 301 296
303 298 299 298 299 298 301 301 300 297 296 296 296 296 296 296 294 294 293 293 293 292 292 293 294 295 296 296 297 299 299 299 300 300 301 301 301 297 297 297 297 296 296 296
296 296 297 299 298 298 299 299 300 298 297 295 295 295 295 294 294 293 292 291 290 290 290 290 291 292 293 294 293 295 297 297 297 297 293 291 293 295 292 290 292 292 292 291
293 295 296 295 295 296 296 297 297 297 296 294 295 295 293 292 292 292 291 289 289 289 288 288 289 290 290 290 291 292 292 293 294 292 292 291 292 291 288 287 285 285 286 287
291 292 291 292 292 293 293 294 295 295 294 294 293 294 294 292 291 290 289 289 288 288 287 286 287 287 287 288 289 290 290 289 289 290 289 288 287 286 286 285 284 282 283 283
289 290 289 289 290 291 291 290 290 292 292 292 292 292 291 290 289 288 288 288 288 287 285 286 286 284 285 286 288 288 288 288 288 287 286 286 286 286 285 285 285 285 285 284
287 287 287 287 287 287 288 289 288 289 290 291 291 290 289 289 288 287 287 286 287 286 285 285 284 284 284 285 287 286 286 286 286 286 286 286 286 286 286 286 285 284 281 278
285 285 285 284 284 285 286 288 289 289 289 289 289 289 288 287 287 286 285 285 286 287 285 284 284 285 285 286 286 286 286 286 286 286 286 287 287 286 286 284 281 279 277 277
285 285 285 284 285 285 286 286 287 287 287 287 287 287 286 285 285 285 284 285 285 285 284 284 285 286 286 286 287 287 287 287 287 287 287 287 286 285 281 279 278 277 277 276
284 283 283 283 283 284 284 285 285 285 286 286 285 285 285 284 283 284 283 285 284 284 283 284 285 286 286 286 287 287 287 287 287 286 286 283 281 279 278 277 277 276 276 275
282 282 282 282 282 282 282 283 283 283 284 284 283 284 283 283 283 283 283 284 283 283 283 284 285 286 285 285 286 286 286 285 283 281 280 279 278 277 277 277 276 276 276 275
281 281 281 280 280 280 281 281 281 281 281 282 282 282 282 282 282 282 282 282 282 282 283 284 284 283 283 282 281 281 281 280 280 279 278 278 277 277 276 276 275 275 275 274
281 280 280 279 279 279 279 279 279 279 280 280 280 280 280 280 280 281 281 281 281 281 282 282 282 281 280 280 279 279 279 278 278 277 277 276 276 276 275 275 274 274 274 274
280 279 278 278 278 277 277 278 277 278 278 278 278 278 278 279 279 279 279 279 279 280 280 279 278 278 278 278 278 278 277 277 277 276 276 275 275 275 275 274 274 274 273 273
279 279 278 277 276 276 276 276 276 276 276 276 277 277 277 277 278 278 277 277 278 278 278 277 277 277 277 277 277 276 276 276 276 275 275 275 274 274 274 273 273 273 273 272
279 278 277 276 276 275 275 275 275 275 275 275 275 276 276 276 276 276 276 276 276 275 276 275 275 276 276 275 275 275 275 274 274 274 274 273 273 273 273 273 272 272 272 272
278 277 276 276 275 275 274 274 274 274 274 274 275 274 275 275 275 275 275 275 275 275 276 276 275 274 274 274 274 274 274 273 273 273 273 273 273 272 272 272 272 271 271 271

GFSNGP_850_thetae_120.txt.gz
Theta_e
301 302 302 303 304 304 304 304 305 307 306 306 306 306 305 304 305 305 307 309 314 317 318 317 314 314 314 315 317 320 323 323 324 323 323 323 322 323 322 321 322 323 324 323
301 301 302 303 303 303 304 304 305 305 305 306 305 304 304 304 305 306 309 314 317 316 315 313 311 312 314 313 314 318 321 322 323 322 322 322 322 322 321 321 321 321 321 322
302 301 301 301 302 302 303 303 304 304 305 305 304 305 305 305 305 310 314 315 314 313 311 310 310 311 312 313 314 317 320 322 322 322 321 321 322 322 321 321 321 322 321 321
303 301 302 301 302 302 302 302 303 303 304 304 305 305 307 308 308 313 313 311 310 309 308 307 306 307 311 313 313 316 319 321 323 322 320 321 321 321 321 321 321 321 321 320
303 302 301 301 302 302 302 302 303 304 306 306 308 310 311 311 312 310 309 307 307 306 304 304 304 308 308 313 312 316 318 320 322 322 320 320 321 321 321 320 321 320 320 320
302 303 302 302 303 303 305 304 308 308 308 306 306 313 313 309 306 305 304 303 303 302 301 301 304 306 307 311 313 314 318 320 321 323 320 319 321 321 321 321 320 319 319 319
303 306 304 303 304 304 304 308 307 306 302 300 308 307 305 303 302 301 301 300 299 299 300 302 303 304 306 308 307 312 316 319 321 321 319 319 320 321 321 320 320 318 318 317
306 306 306 305 304 306 307 307 305 303 304 307 308 305 303 302 300 298 297 297 297 297 299 300 301 302 303 306 306 312 315 315 319 321 319 319 320 320 320 319 319 318 317 316
306 306 306 303 305 305 306 307 305 304 304 304 304 302 301 299 297 296 294 294 295 296 297 298 298 299 300 302 304 305 308 314 318 319 319 318 319 319 318 317 317 315 315 313
304 303 301 299 299 301 303 300 299 299 300 300 299 298 297 295 293 293 292 292 292 292 294 295 296 296 296 298 300 301 307 307 309 311 316 316 317 317 316 315 314 314 312 310
304 300 300 299 297 297 298 298 298 298 297 297 297 296 294 293 292 291 290 290 290 291 290 292 294 294 295 295 297 300 301 300 302 305 306 301 305 308 311 308 309 307 304 305
302 297 297 298 297 297 296 295 295 297 297 295 295 294 293 291 290 290 290 288 289 290 289 289 291 292 293 294 295 297 299 299 301 300 299 300 299 298 299 302 303 300 298 296
296 295 297 296 297 295 297 295 294 295 294 293 293 292 291 290 290 290 290 289 288 287 288 289 289 290 291 292 293 294 296 296 297 297 295 296 297 294 293 292 296 295 295 292
293 294 296 294 294 294 294 294 294 293 292 293 293 292 291 290 290 289 288 287 287 286 286 287 287 287 287 289 291 292 292 293 294 292 294 291 293 290 286 287 285 284 287 288
292 292 292 292 292 292 293 293 294 293 290 289 291 291 290 289 289 288 287 286 285 285 285 285 285 285 285 286 288 289 290 289 289 288 288 286 287 286 286 284 284 282 283 283
291 291 291 290 290 290 291 291 291 291 290 288 288 288 288 287 288 287 286 286 286 285 284 283 284 283 284 285 286 287 287 288 287 286 286 285 284 284 282 281 280 280 281 282
289 289 288 289 288 288 288 288 288 287 287 286 286 287 287 286 286 286 286 285 286 285 284 283 283 283 283 284 285 285 285 285 285 285 285 284 284 284 284 283 282 281 280 281
285 285 285 286 285 286 286 286 286 285 285 287 287 286 286 286 286 285 285 285 285 285 285 284 284 284 284 284 284 284 284 284 283 284 284 284 284 284 283 283 283 282 279 278
283 283 283 283 283 283 284 283 284 285 286 286 286 286 285 284 284 285 284 284 283 283 284 284 284 285 285 285 284 284 284 284 284 284 284 284 284 283 283 282 279 278 278 277
282 282 282 282 283 283 284 284 284 284 284 284 284 284 284 284 283 283 284 284 284 283 283 284 284 285 285 285 286 286 286 286 285 285 284 284 284 282 280 279 278 277 277 277
282 282 282 281 281 281 282 282 283 283 283 283 283 283 283 283 283 282 281 281 283 283 283 284 284 285 285 285 285 285 285 285 285 284 283 281 279 278 278 277 277 277 276 276
281 281 280 280 280 280 280 280 281 281 281 281 281 281 281 281 281 282 282 281 282 282 283 284 284 284 284 284 285 285 284 284 283 281 279 278 278 277 277 276 276 275 275 275
281 280 280 279 279 279 279 279 279 279 279 279 279 279 278 279 278 279 279 280 281 281 282 282 281 281 280 280 280 280 280 279 279 278 277 277 276 276 276 275 275 275 275 275
280 279 279 278 277 277 276 277 277 277 277 277 277 278 277 277 278 279 279 279 279 280 281 281 281 280 278 278 278 278 278 278 277 277 277 276 276 276 275 275 275 274 274 274
279 279 278 277 277 276 275 274 275 274 275 275 276 276 277 277 277 278 278 278 278 278 278 277 277 277 277 277 277 277 277 276 276 276 275 275 275 274 274 274 274 273 273 273
278 277 276 276 276 275 275 274 274 274 274 274 274 275 276 276 276 276 276 277 277 277 276 278 277 276 276 276 276 276 275 275 275 275 274 274 274 274 273 273 273 273 273 272
277 276 276 276 274 274 273 273 274 273 273 273 273 274 274 275 275 275 275 275 276 275 275 276 277 275 275 275 275 275 274 274 274 274 274 274 273 273 273 273 273 272 272 272

GFSNGP_850_thetae_123.txt.gz
Theta_e
303 303 303 303 304 306 306 307 308 309 310 312 310 308 308 306 306 306 307 308 310 313 316 318 317 315 314 312 313 314 317 323 323 324 327 326 324 323 323 323 323 323 323 323
303 303 303 302 303 304 305 305 306 307 307 308 308 307 306 306 306 307 307 308 312 316 315 315 314 313 312 311 313 312 314 320 322 323 326 324 324 323 322 323 323 322 324 324
303 303 303 302 302 303 304 304 305 305 306 307 306 306 306 307 307 308 307 314 314 314 313 312 311 310 309 308 311 312 313 315 321 322 324 324 324 323 323 322 322 322 322 322
305 304 303 303 303 303 303 303 304 304 305 305 306 307 308 308 308 309 313 313 312 312 310 309 308 305 307 307 308 312 312 314 319 322 324 324 323 323 322 321 321 322 321 321
304 304 304 303 305 305 305 305 305 305 306 307 308 307 308 312 312 311 310 309 308 307 306 305 302 301 306 306 308 311 312 313 318 322 324 323 323 323 322 321 321 321 322 320
304 306 304 305 304 305 306 306 309 309 309 308 306 308 310 305 304 304 303 303 302 303 302 300 300 303 305 306 306 311 313 313 317 321 324 322 323 322 322 321 321 320 321 321
306 307 305 307 306 305 307 309 308 306 304 302 303 304 303 301 301 300 301 300 299 299 298 296 299 301 304 303 303 307 311 314 315 319 322 322 322 321 321 321 321 320 320 320
307 308 308 303 306 309 307 306 305 304 301 300 301 302 302 300 299 298 298 298 298 298 297 294 296 300 301 300 301 304 307 313 314 315 319 322 320 321 321 321 320 319 318 317
305 305 303 299 299 299 299 304 301 300 300 302 301 300 299 297 296 296 296 296 296 296 296 294 292 298 297 297 300 300 301 310 309 313 318 321 320 320 320 319 319 317 316 315
304 302 300 298 297 297 297 297 298 299 300 300 299 298 297 296 295 295 294 294 293 293 293 292 290 293 294 296 298 298 298 301 303 307 306 314 318 319 318 317 316 316 314 312
304 301 299 300 297 297 297 296 297 298 299 298 297 296 296 294 293 292 291 291 290 290 289 290 288 291 293 295 295 296 298 299 300 302 302 301 307 307 309 310 313 316 311 309
302 299 297 298 297 297 297 297 296 296 296 296 294 294 293 291 290 288 288 287 287 286 286 286 286 287 291 292 293 293 295 296 297 300 299 300 297 296 297 300 302 305 305 305
297 296 297 297 297 295 296 296 296 295 294 293 292 291 290 288 288 288 286 286 285 284 284 284 283 286 288 289 291 291 292 292 293 293 296 297 298 296 292 291 294 296 296 296
295 295 296 295 294 294 294 295 295 294 293 292 290 290 288 287 288 288 287 284 284 285 284 283 283 285 285 286 288 289 290 290 290 290 290 290 291 290 290 288 287 284 286 289
294 294 294 294 294 293 293 293 294 293 292 291 289 288 286 285 286 286 286 285 283 284 283 284 284 283 283 285 286 288 288 288 288 288 287 286 286 285 284 284 281 280 281 283
293 294 293 293 292 292 292 291 290 290 290 289 288 287 286 285 285 285 285 285 284 282 282 282 283 282 283 283 284 285 285 285 286 285 284 284 283 283 281 280 280 281 282 281
291 291 290 290 290 289 290 289 288 288 287 286 284 284 284 285 284 284 284 284 284 284 283 282 282 282 282 283 283 282 283 284 284 284 283 282 281 280 280 281 280 279 279 279
288 288 287 287 287 287 287 287 286 285 283 283 284 284 284 283 283 283 283 283 283 284 283 283 282 282 282 282 282 282 281 281 282 282 282 282 282 282 282 282 281 280 279 278
286 285 285 285 284 284 284 283 282 282 281 282 283 282 283 284 283 283 283 283 282 282 282 283 283 283 283 282 283 282 283 282 281 281 282 282 282 282 282 282 280 279 278 277
284 284 282 282 282 282 281 281 281 280 281 282 281 281 281 282 283 282 283 283 282 282 282 283 284 284 284 283 283 283 283 283 283 282 282 282 282 281 280 279 278 278 277 277
283 282 282 282 281 280 281 280 279 279 280 280 280 280 281 281 282 282 282 281 283 283 283 284 284 283 284 284 284 284 284 283 283 283 283 282 282 281 281 279 278 277 277 276
282 282 281 280 280 279 278 278 278 277 278 278 279 280 280 280 280 281 281 280 281 282 283 284 284 284 284 284 284 284 283 283 282 281 281 280 280 278 277 276 276 276 275 275
281 280 279 279 279 278 277 277 277 276 276 276 277 278 278 278 279 280 280 279 279 280 282 282 281 281 281 282 282 281 281 281 280 279 277 276 275 275 275 275 275 275 275 275
280 279 278 278 278 279 278 278 276 276 275 277 276 277 278 279 278 277 277 278 279 280 281 281 280 279 277 278 278 277 277 276 276 276 275 275 275 275 274 274 274 275 275 275
280 279 280 279 279 279 278 277 277 277 277 277 276 276 276 277 277 276 276 277 277 277 277 277 277 276 276 276 276 276 276 275 275 275 275 275 275 274 274 274 274 274 274 274
279 279 279 277 277 277 277 276 277 277 276 277 276 275 275 275 275 275 276 276 275 275 275 275 275 275 274 274 274 274 274 274 274 274 274 273 273 274 274 274 274 273 273 273
280 279 278 279 278 276 275 275 275 276 275 275 275 275 274 274 275 274 274 274 274 274 275 274 274 273 273 273 273 274 273 273 273 273 273 273 273 273 273 273 273 273 273 272

GFSNGP_850_thetae_126.txt.gz
Theta_e
303 304 303 302 302 303 304 308 308 308 308 309 307 309 312 311 307 306 307 307 307 309 316 316 315 315 314 314 313 312 312 314 316 322 324 325 327 328 328 326 324 324 326 327
306 305 304 303 304 303 303 304 306 306 306 307 309 308 308 307 307 307 308 308 309 316 315 314 313 312 311 311 310 309 311 313 314 319 323 324 326 328 326 324 323 323 323 323
304 303 303 303 303 303 302 303 304 305 305 307 306 308 309 309 309 309 308 312 314 313 312 311 310 309 308 308 306 307 308 312 313 316 321 323 324 326 325 323 323 322 322 322
305 304 304 304 305 306 303 303 304 304 304 307 308 308 309 311 311 311 312 311 310 309 308 308 307 306 305 305 304 305 307 310 312 315 318 323 324 325 324 323 324 322 322 323
305 303 303 304 307 306 305 305 309 309 308 306 306 306 308 306 305 305 305 305 304 304 304 303 302 301 302 302 300 304 307 310 313 313 317 321 323 325 324 323 323 322 321 321
305 307 304 306 303 305 307 305 307 307 305 304 303 307 307 302 301 302 302 301 301 301 300 299 297 298 299 300 300 302 305 309 312 313 315 319 318 324 324 323 322 321 322 321
308 307 307 302 303 304 308 306 306 305 303 301 303 302 301 301 300 299 299 299 299 299 299 297 295 295 298 299 297 300 304 306 311 313 314 314 316 323 324 322 321 321 321 321
305 304 304 299 301 302 299 299 299 300 300 302 301 300 299 298 297 297 297 297 297 297 297 296 294 292 294 297 295 297 301 304 309 310 312 314 315 323 323 322 321 320 319 319
304 303 301 298 297 297 297 297 298 299 300 300 299 298 298 297 297 296 295 294 294 294 294 293 292 289 290 294 292 296 299 301 305 307 307 311 314 322 322 320 320 319 318 317
302 302 299 299 298 297 297 297 297 298 298 298 298 296 296 295 294 293 292 291 290 290 290 289 288 288 289 290 292 294 296 298 299 300 304 306 306 302 320 320 318 319 317 315
302 301 298 299 297 296 297 297 296 297 297 296 295 295 294 293 291 290 289 288 287 286 286 286 285 287 288 289 291 292 294 295 295 297 299 301 302 299 301 316 314 319 317 316
301 299 298 298 297 296 296 296 296 295 295 294 293 293 292 290 288 287 286 285 285 284 284 284 284 285 286 287 289 289 292 293 293 294 295 296 299 299 295 300 305 305 309 310
298 297 297 297 296 295 295 295 296 294 293 292 291 290 289 288 286 286 286 284 284 283 283 283 284 285 286 287 287 288 289 290 291 291 292 291 291 296 292 288 294 295 294 294
296 296 296 296 296 295 295 294 294 293 292 291 290 289 287 287 285 285 285 284 284 283 283 283 283 283 284 285 285 287 287 288 288 289 288 288 286 286 289 286 286 286 287 289
295 296 295 295 295 294 293 292 292 291 290 289 288 287 287 286 285 285 285 285 283 283 283 283 283 283 283 283 285 285 286 285 285 285 286 285 284 283 282 283 281 280 281 281
294 295 293 293 292 291 291 291 289 288 288 287 286 285 285 286 284 285 285 284 284 282 282 282 282 282 283 283 283 284 284 284 284 283 283 282 282 281 280 279 279 279 279 279
292 291 290 290 289 289 289 288 287 285 285 284 283 284 283 284 284 284 283 283 283 283 283 283 282 282 282 283 282 282 282 282 283 282 281 280 280 279 279 279 279 279 279 280
289 288 287 287 286 285 285 285 283 283 282 282 282 283 282 282 282 283 283 283 283 283 283 283 282 282 282 282 282 281 281 281 281 281 281 281 280 280 280 279 279 279 279 281
286 286 285 284 283 283 282 281 280 280 280 281 282 282 282 282 282 282 283 283 283 283 282 282 283 282 282 281 281 281 281 281 281 281 281 280 281 281 281 280 280 279 279 280
285 284 283 282 281 281 280 279 278 278 279 280 281 281 281 282 282 282 283 283 282 281 282 282 282 283 282 281 282 282 281 281 281 281 281 281 280 280 279 279 279 279 279 279
283 282 282 281 281 279 279 279 278 277 278 278 279 280 280 281 281 282 283 281 281 280 282 284 284 283 283 283 282 282 281 281 281 281 280 280 279 279 279 279 278 278 277 277
283 282 280 281 280 279 278 278 278 277 278 277 278 279 280 281 281 281 281 280 279 280 282 283 283 282 281 282 282 282 282 282 281 280 280 279 279 279 279 279 278 277 276 276
282 281 280 279 279 279 279 279 278 277 277 277 277 278 279 279 279 280 279 280 279 280 281 281 280 279 280 280 280 281 281 280 280 280 279 278 278 277 276 276 275 275 275 275
281 280 280 280 279 280 279 279 278 278 277 278 277 277 278 278 278 278 277 277 279 279 279 279 278 278 278 278 278 278 278 278 277 277 277 276 276 276 275 275 275 275 275 275
280 281 281 280 279 279 278 278 278 278 277 278 277 277 277 277 277 277 276 276 276 276 277 276 276 277 277 276 277 277 276 276 276 276 275 275 275 275 274 274 274 275 274 274
280 280 280 280 279 278 277 276 277 277 276 277 277 276 276 276 276 276 276 275 275 275 275 275 275 275 275 275 275 275 275 275 275 275 274 274 274 274 274 274 274 274 274 275
281 280 279 279 278 277 276 276 276 276 275 276 276 276 276 275 275 275 275 275 274 274 274 274 274 274 274 273 274 274 274 273 273 273 273 274 274 273 274 274 274 274 274 273

GFSNGP_850_thetae_129.txt.gz
Theta_e
303 303 304 304 304 303 303 303 307 307 307 308 308 308 307 308 309 310 309 311 314 314 313 313 313 313 312 311 310 311 311 311 310 312 314 317 323 324 325 327 330 330 328 327
304 304 305 303 302 303 303 303 302 305 306 307 307 308 308 308 311 312 311 311 310 309 309 309 309 310 310 309 308 310 309 309 309 311 312 315 320 324 325 325 328 328 327 325
303 303 303 303 304 305 305 303 304 305 308 307 308 308 308 307 307 307 307 306 306 305 305 306 307 308 309 308 307 307 307 307 308 309 312 314 318 322 324 325 328 327 324 324
304 303 303 305 303 304 306 305 306 306 305 305 305 306 305 304 304 304 304 303 305 304 303 303 305 306 306 306 305 304 304 305 307 308 311 313 315 319 323 325 326 324 323 323
300 304 303 302 301 303 306 305 303 306 304 303 303 305 303 302 302 301 301 301 301 300 300 300 300 301 301 302 301 299 300 302 305 307 310 312 314 318 319 324 325 324 323 322
305 305 305 301 300 300 299 305 300 302 303 301 302 304 303 300 299 298 299 298 298 298 298 297 297 297 297 297 299 300 301 302 304 306 308 311 313 315 318 321 324 324 322 322
304 304 303 299 299 300 303 299 298 299 299 300 301 300 299 298 298 297 296 296 296 295 295 294 294 294 294 294 296 298 301 303 305 305 306 309 311 313 316 317 323 323 323 321
300 293 298 298 299 298 298 297 297 298 298 299 298 298 297 296 296 295 294 293 293 292 292 291 290 290 291 293 295 296 298 301 304 302 303 308 309 311 314 315 318 323 322 320
303 302 298 298 298 297 297 297 297 298 297 297 297 296 296 294 293 292 292 290 289 289 289 289 289 289 289 291 292 294 297 298 299 298 301 305 306 308 308 311 307 321 320 319
301 300 298 298 297 296 297 297 296 296 296 295 295 294 293 291 290 289 288 287 286 286 286 286 287 288 288 289 290 292 294 294 295 295 298 302 302 302 304 303 305 309 319 318
300 299 298 298 296 295 296 296 295 295 294 293 293 292 291 289 287 286 285 285 284 284 285 285 286 286 287 288 289 290 291 291 292 293 295 296 298 298 299 301 302 298 312 319
300 298 297 297 296 295 295 295 295 293 293 292 291 290 289 287 286 285 285 285 285 284 284 285 284 284 284 286 287 287 288 289 289 291 292 292 292 294 296 298 301 298 297 305
298 296 296 296 296 295 294 293 293 292 291 290 289 288 287 287 285 284 285 285 284 283 284 284 284 284 284 285 285 285 286 287 287 288 289 289 288 288 290 290 295 297 295 294
296 296 296 295 294 293 293 292 291 290 289 288 288 287 287 286 284 284 284 284 284 283 284 284 283 283 283 284 284 284 285 284 285 285 286 286 286 285 284 285 287 287 288 291
294 294 293 293 292 291 291 290 289 288 287 286 286 285 285 285 285 284 284 284 284 284 283 283 283 283 283 283 283 283 283 283 283 283 283 283 283 283 282 282 282 282 282 282
293 291 291 290 289 288 288 287 286 285 284 284 283 283 283 284 284 284 284 284 283 283 283 283 282 282 282 282 283 282 282 282 282 282 282 282 282 281 280 280 280 280 280 280
290 288 287 287 286 286 285 285 284 283 283 282 282 281 282 283 283 283 283 283 282 283 282 282 282 282 282 282 282 282 281 281 281 281 281 280 280 280 280 279 279 280 280 280
287 286 286 285 284 284 283 283 282 281 281 281 282 282 282 282 282 282 282 282 283 283 282 282 282 282 282 282 282 281 281 281 281 280 280 280 280 280 280 280 280 280 280 282
286 285 284 283 283 282 282 281 280 280 280 280 281 281 281 281 282 282 282 282 283 283 282 282 282 282 282 281 282 281 281 281 280 280 279 280 280 280 280 280 280 280 281 281
285 284 283 283 282 281 280 279 278 278 278 278 279 280 281 281 281 282 282 281 281 280 282 282 282 282 282 281 281 282 282 281 281 280 280 280 280 279 280 280 280 280 280 280
284 283 282 281 280 280 279 279 278 278 277 277 278 279 280 281 281 281 281 281 281 281 281 281 281 281 281 282 282 282 282 281 281 280 280 280 280 279 279 279 279 279 280 280
283 282 281 280 280 280 279 279 278 277 277 277 277 278 279 279 279 279 279 279 279 280 280 280 280 280 280 281 282 282 281 281 280 280 280 280 279 279 279 279 279 278 277 277
282 281 280 280 279 280 279 278 278 278 277 277 277 277 278 278 278 278 279 278 279 279 279 279 279 279 279 280 280 280 280 280 280 279 279 279 279 279 279 279 278 278 276 276
281 281 281 280 279 278 278 278 278 278 277 278 277 277 277 277 277 277 276 276 276 277 277 277 278 278 278 278 278 278 278 278 279 278 278 277 277 276 276 276 276 275 276 276
280 280 280 279 279 278 277 277 277 277 277 277 277 276 276 276 276 276 276 276 276 275 276 276 277 277 277 277 277 277 277 276 276 276 276 276 275 275 275 275 275 275 275 275
281 280 279 279 278 277 276 276 276 276 276 276 276 276 276 275 275 275 275 275 275 275 275 275 275 276 276 276 276 276 275 275 275 275 275 275 274 274 274 274 275 274 274 274
281 279 279 278 277 276 276 276 276 275 275 276 276 275 275 275 275 275 275 274 274 274 274 274 274 274 274 274 274 274 274 274 274 274 274 274 274 274 274 274 274 274 273 273

GFSNGP_850_thetae_132.txt.gz
Theta_e
303 303 303 304 304 302 302 302 304 303 304 307 308 308 307 307 309 308 307 306 306 306 307 307 307 307 307 307 307 307 308 307 307 309 310 310 312 313 318 322 324 325 327 329
302 302 302 302 303 304 305 306 304 306 308 306 308 308 308 307 306 306 305 304 303 303 304 305 305 305 305 306 306 306 307 307 308 308 309 309 310 312 315 321 323 324 326 329
303 302 302 304 302 304 305 305 307 306 305 304 305 308 305 304 304 303 302 301 300 300 300 301 301 301 302 303 305 306 306 306 307 307 308 308 309 312 313 318 322 324 325 327
304 303 303 302 300 302 304 301 302 303 303 303 302 304 303 302 301 300 300 298 297 297 296 296 297 299 300 302 302 303 303 304 304 305 307 307 308 311 313 316 320 323 324 325
302 304 303 301 300 300 301 302 299 300 300 301 302 303 302 299 298 298 296 296 296 296 296 297 299 299 299 300 299 300 301 302 302 304 306 306 307 311 313 314 319 319 322 324
303 304 303 301 299 298 299 302 298 299 300 301 300 303 302 298 296 295 295 295 295 295 295 295 295 295 296 297 297 298 299 300 300 302 304 305 306 310 311 312 315 318 321 324
298 299 302 299 298 298 299 297 297 298 297 298 300 298 297 295 295 294 293 293 293 293 293 294 294 294 294 294 295 296 297 298 300 299 301 303 305 308 310 310 312 316 317 317
296 290 296 298 298 299 298 297 297 297 296 296 296 295 295 293 292 291 291 291 290 291 290 289 290 292 293 294 293 294 294 296 295 294 298 301 304 307 309 307 310 312 313 315
301 301 298 298 297 296 296 296 296 295 296 295 295 293 292 291 290 289 288 288 288 288 289 288 287 287 288 289 291 292 291 291 291 294 297 299 303 306 305 303 305 306 307 312
298 298 298 296 296 295 295 296 296 295 294 293 292 291 290 290 288 286 287 287 286 287 287 287 287 286 285 284 286 287 287 288 291 293 295 296 299 301 301 300 301 301 303 303
297 298 298 298 296 295 295 295 294 293 293 291 291 289 288 288 286 285 285 285 285 284 284 284 283 284 284 285 286 287 287 288 289 290 291 292 294 295 296 297 297 298 299 301
294 297 297 297 296 295 294 294 293 292 291 290 289 288 287 286 285 284 283 284 284 284 284 284 284 284 284 284 284 285 286 286 287 287 288 290 290 291 292 294 295 296 297 299
298 297 296 295 293 293 293 292 291 290 289 288 288 287 287 286 285 284 284 284 284 284 284 284 284 283 283 283 284 284 285 285 285 286 286 287 287 287 287 287 289 291 295 297
296 295 295 293 291 291 291 290 290 289 287 286 286 285 284 285 284 284 283 283 283 284 284 283 283 283 283 283 283 283 284 284 283 283 284 284 285 284 284 284 284 284 285 290
293 293 292 291 291 290 289 289 287 286 285 284 283 283 283 283 283 283 283 283 283 284 284 283 283 283 283 282 282 283 283 282 282 282 282 282 283 282 282 282 282 282 282 282
291 291 290 290 288 287 286 286 285 284 283 283 282 282 282 282 282 282 283 282 282 283 283 283 283 282 282 282 282 282 282 281 281 281 281 281 281 282 281 281 281 280 280 280
290 289 287 287 285 285 284 283 283 282 281 281 281 281 281 282 282 282 282 282 282 282 282 282 282 282 282 282 282 281 281 281 281 280 280 280 281 280 281 281 281 280 280 280
288 286 286 285 284 283 283 282 281 280 280 280 280 281 281 281 281 281 281 281 282 282 282 282 282 282 282 282 282 281 281 281 280 280 280 280 280 280 280 280 280 280 280 281
286 286 284 284 283 282 281 280 280 279 279 279 280 280 280 280 280 281 282 281 281 282 282 281 281 282 282 282 282 282 282 281 280 280 280 280 280 280 280 280 279 279 280 281
285 285 284 283 282 281 280 279 278 278 277 278 278 279 279 280 280 280 280 280 280 280 280 281 281 281 282 282 282 282 281 281 281 280 280 280 280 280 280 280 280 280 280 280
285 284 282 281 280 280 279 279 278 277 277 277 277 278 278 279 279 279 279 279 279 280 280 280 280 280 281 281 282 282 281 281 281 280 280 280 280 279 279 279 279 279 280 280
283 282 281 280 280 279 279 278 278 278 277 277 277 277 278 278 278 278 278 277 278 279 279 279 280 280 280 280 281 281 281 280 280 280 280 279 279 279 279 279 279 279 279 279
282 281 281 280 279 278 278 278 278 278 277 278 277 277 277 277 277 277 277 277 277 277 278 278 278 279 279 279 279 279 279 280 280 279 279 279 279 279 279 279 279 279 278 277
281 280 280 279 279 278 277 277 277 277 277 277 276 276 276 276 276 276 275 276 276 276 277 277 277 277 278 278 278 278 278 278 278 279 279 278 278 277 277 277 277 276 276 276
280 280 279 279 279 278 276 276 277 276 276 276 276 276 275 275 275 275 275 275 275 275 276 276 276 276 277 277 277 277 277 276 276 276 276 276 275 275 275 275 275 275 275 275
281 280 279 279 278 277 276 276 276 275 275 276 276 275 275 275 275 275 275 274 274 274 275 275 275 275 275 275 275 275 275 275 275 275 274 274 274 274 274 274 274 274 274 274
280 279 278 278 277 276 276 275 275 275 275 275 275 275 274 274 274 274 274 274 274 274 274 274 274 274 274 274 274 274 274 274 274 274 274 274 274 273 273 273 273 273 273 273

GFSNGP_850_thetae_135.txt.gz
Theta_e
301 301 302 302 302 303 304 304 305 305 305 306 307 308 308 307 305 304 302 300 300 301 299 301 303 302 304 303 303 304 304 304 306 307 307 307 308 309 309 311 313 319 321 323
302 302 302 302 301 302 304 304 305 304 305 303 304 306 305 303 303 302 301 300 298 299 297 298 298 299 299 300 301 301 300 302 304 306 307 307 308 308 309 310 311 316 321 323
303 302 302 304 300 302 303 302 303 304 303 302 302 304 302 301 300 299 298 296 295 295 295 295 296 297 299 299 300 299 299 300 301 303 305 307 307 307 308 308 311 313 318 321
303 302 303 301 300 300 302 299 299 300 300 300 301 302 299 298 298 295 294 293 293 292 293 293 294 295 297 297 297 296 297 299 300 301 303 305 306 306 307 308 310 312 316 319
300 303 302 301 299 299 300 300 298 300 299 298 299 301 298 295 294 293 291 291 292 292 292 292 292 292 293 294 295 296 297 297 298 300 301 304 305 305 306 307 309 311 313 317
301 303 302 300 298 298 299 301 297 298 298 298 298 299 298 294 292 292 291 291 289 289 290 290 291 292 292 293 294 295 295 295 296 297 299 302 304 305 305 306 308 309 312 313
297 290 295 298 297 298 299 295 297 296 296 296 297 295 295 293 291 290 289 288 288 288 287 287 288 289 290 290 290 290 292 293 294 295 296 299 301 303 305 305 306 307 309 310
293 288 293 298 298 297 297 297 296 296 295 294 294 293 291 290 289 287 288 288 287 287 287 287 287 288 289 288 289 290 291 291 293 294 295 296 298 301 303 304 305 304 307 308
296 296 297 297 296 296 296 296 296 295 294 293 292 291 290 289 288 286 286 286 286 287 287 287 287 287 287 288 288 289 290 290 291 292 292 293 295 297 300 300 301 303 304 305
295 297 298 296 296 295 295 295 295 294 293 292 291 290 289 288 287 286 287 287 286 287 287 286 286 285 285 286 287 288 289 288 288 289 290 291 291 292 294 294 297 300 300 300
293 297 297 297 296 295 295 294 293 293 292 291 290 288 288 287 286 285 285 286 285 285 285 285 285 285 284 284 285 285 286 286 286 286 286 287 288 288 289 291 293 296 298 297
292 297 295 297 295 295 294 293 292 291 290 289 288 287 287 286 286 285 284 284 285 285 285 285 285 285 285 285 284 283 284 284 284 284 284 284 285 287 287 288 291 294 296 295
298 296 296 294 293 293 292 291 290 289 288 287 286 285 285 285 284 284 284 284 284 284 284 284 284 284 284 283 283 283 282 282 282 282 283 283 284 284 285 286 287 289 291 292
297 296 294 293 292 291 290 289 288 287 286 285 284 284 283 283 283 283 283 283 283 283 283 284 284 284 283 283 282 282 282 281 281 281 281 282 282 283 283 284 284 283 284 285
294 294 293 291 290 289 288 287 287 286 284 284 283 282 282 282 282 282 282 282 282 282 283 283 283 283 283 282 282 282 281 281 280 281 281 281 282 282 282 282 282 282 282 282
291 291 290 289 288 287 286 285 284 283 282 281 281 281 281 281 281 281 281 282 282 282 282 282 283 283 282 282 282 282 281 280 280 280 281 281 281 281 281 281 281 281 281 281
290 289 288 287 286 285 284 283 282 281 280 280 279 279 280 280 280 281 281 281 281 281 281 282 282 282 283 282 282 282 281 281 280 280 280 280 280 280 280 280 280 280 280 280
289 288 287 286 285 284 283 281 280 279 278 278 278 278 279 280 280 280 281 280 280 281 281 281 281 282 282 282 282 282 281 281 280 280 280 280 280 280 280 280 279 279 278 279
287 286 285 285 284 283 281 280 279 278 278 278 278 278 278 279 280 279 279 279 280 280 281 281 281 281 282 282 282 282 281 281 280 280 280 280 280 280 279 279 279 279 278 279
286 285 285 284 282 281 281 279 279 278 277 277 277 278 278 279 279 279 278 278 278 279 279 280 280 281 281 281 281 281 281 280 280 280 280 280 279 279 279 279 279 279 279 279
286 285 283 282 281 280 280 279 278 278 277 277 277 277 277 277 278 278 278 278 278 278 278 279 279 280 280 280 280 280 280 280 280 279 279 279 279 279 279 279 279 279 278 278
284 283 282 281 280 279 278 278 278 278 277 277 277 276 276 277 277 277 276 276 276 277 277 278 278 279 279 279 279 279 279 279 279 279 279 278 279 279 278 278 278 278 278 278
283 281 281 280 280 279 278 278 277 277 277 277 277 276 276 275 276 276 276 276 276 276 276 277 277 277 278 278 278 278 278 278 278 278 278 278 278 278 278 278 278 278 278 278
281 280 280 280 279 279 278 277 277 277 276 276 276 276 275 275 275 275 275 275 275 275 275 276 276 277 277 277 277 277 277 277 277 277 277 277 277 277 277 278 278 278 278 278
281 281 280 279 278 278 277 276 276 276 276 276 276 275 275 275 275 275 274 274 274 275 275 275 275 275 276 276 276 276 275 275 275 275 275 275 275 274 275 275 275 274 274 274
281 280 279 278 278 277 276 276 275 275 275 275 275 275 274 274 274 274 274 274 274 274 274 274 274 274 274 274 274 274 274 274 274 274 274 274 274 274 274 274 274 274 274 274
280 279 278 278 277 276 276 275 275 275 275 275 274 274 274 274 274 274 273 273 273 273 273 273 273 273 273 273 273 273 273 273 273 273 273 273 273 273 273 273 273 273 273 273